GFSNW_500_temp_000.txt.gz
Temp
-6 -7 -7 -8 -8 -9 -9 -9 -9 -9 -10 -10 -9 -9 -9 -9 -9 -9 -10 -9 -9 -8 -8 -8 -8 -8 -8 -7 -8 -8 -8 -9 -8 -7 -7 -8 -10 -9 -10 -9 -8 -9 -8 -7
-8 -9 -9 -10 -11 -11 -11 -11 -11 -11 -11 -11 -12 -11 -11 -11 -10 -11 -11 -10 -10 -9 -9 -9 -9 -8 -9 -9 -9 -9 -10 -9 -11 -9 -10 -10 -10 -10 -10 -10 -9 -8 -9 -8
-12 -13 -14 -14 -15 -15 -15 -15 -15 -15 -14 -14 -13 -13 -12 -12 -11 -12 -12 -11 -11 -10 -10 -10 -9 -9 -10 -10 -10 -10 -9 -11 -9 -10 -9 -9 -9 -8 -10 -10 -9 -9 -9 -8
-16 -17 -18 -18 -18 -18 -19 -19 -19 -18 -18 -17 -16 -15 -14 -13 -13 -12 -13 -12 -11 -11 -11 -10 -10 -10 -11 -11 -11 -11 -10 -10 -12 -10 -10 -11 -11 -11 -10 -10 -9 -10 -8 -9
-20 -21 -21 -22 -22 -22 -22 -22 -22 -21 -20 -20 -19 -19 -17 -15 -15 -14 -14 -13 -12 -12 -11 -11 -11 -11 -12 -12 -13 -11 -11 -11 -11 -12 -11 -12 -11 -11 -11 -11 -8 -9 -10 -9
-23 -22 -23 -24 -24 -23 -24 -24 -24 -23 -22 -21 -21 -20 -19 -18 -17 -15 -15 -14 -13 -12 -12 -11 -11 -11 -11 -12 -12 -11 -11 -11 -11 -12 -11 -11 -11 -11 -11 -11 -10 -9 -9 -7
-23 -24 -24 -24 -24 -24 -25 -25 -25 -25 -23 -23 -22 -21 -20 -19 -18 -17 -17 -16 -15 -15 -13 -13 -13 -12 -12 -12 -12 -12 -11 -11 -12 -12 -11 -12 -10 -11 -11 -11 -10 -9 -8 -9
-25 -25 -25 -25 -25 -25 -25 -25 -25 -25 -24 -24 -23 -22 -21 -21 -20 -19 -19 -18 -17 -16 -15 -15 -14 -13 -13 -12 -12 -12 -12 -12 -13 -12 -12 -12 -10 -11 -11 -11 -11 -11 -10 -9
-25 -25 -25 -25 -25 -25 -25 -25 -26 -25 -25 -25 -24 -24 -23 -22 -21 -20 -19 -19 -18 -18 -18 -17 -16 -14 -13 -13 -12 -13 -12 -12 -12 -13 -13 -12 -12 -11 -11 -11 -10 -10 -11 -9
-26 -26 -26 -26 -26 -25 -25 -25 -26 -25 -25 -25 -25 -24 -23 -23 -21 -21 -20 -19 -19 -19 -19 -18 -16 -15 -15 -14 -13 -12 -12 -12 -12 -13 -13 -12 -10 -11 -11 -11 -10 -10 -9 -9
-26 -26 -26 -26 -26 -26 -26 -27 -26 -25 -25 -25 -25 -24 -23 -23 -22 -21 -21 -20 -19 -19 -18 -17 -17 -16 -15 -15 -14 -12 -12 -12 -13 -13 -13 -12 -10 -11 -11 -10 -10 -10 -10 -10
-26 -27 -27 -27 -27 -27 -27 -27 -26 -26 -25 -25 -24 -23 -23 -22 -22 -22 -21 -20 -19 -19 -18 -17 -17 -16 -13 -14 -15 -14 -13 -12 -14 -12 -12 -11 -11 -11 -11 -10 -10 -10 -10 -10
-27 -27 -27 -27 -27 -27 -27 -26 -26 -26 -25 -25 -24 -23 -23 -22 -22 -22 -21 -20 -19 -19 -18 -17 -17 -16 -15 -14 -14 -14 -13 -13 -12 -12 -12 -11 -11 -11 -11 -11 -10 -10 -10 -10
-27 -27 -27 -27 -27 -26 -26 -26 -25 -25 -25 -24 -24 -23 -23 -22 -22 -22 -22 -19 -19 -18 -18 -17 -17 -16 -16 -15 -14 -14 -12 -13 -12 -12 -11 -12 -11 -11 -11 -11 -10 -10 -10 -10
-26 -27 -26 -26 -26 -26 -26 -25 -25 -25 -24 -24 -24 -23 -23 -22 -22 -22 -21 -20 -19 -18 -18 -17 -17 -16 -16 -15 -15 -13 -13 -13 -12 -12 -12 -11 -12 -12 -11 -11 -11 -11 -10 -10
-26 -26 -26 -26 -26 -26 -25 -25 -25 -24 -24 -24 -23 -23 -22 -22 -22 -22 -21 -20 -19 -18 -18 -17 -16 -16 -15 -15 -14 -14 -13 -13 -12 -12 -12 -11 -12 -11 -11 -11 -11 -11 -11 -10
-26 -26 -26 -26 -26 -25 -25 -25 -24 -24 -23 -23 -23 -23 -23 -22 -22 -21 -21 -19 -18 -18 -17 -16 -15 -15 -15 -15 -15 -14 -13 -13 -13 -13 -12 -12 -12 -12 -11 -12 -11 -11 -11 -10
-26 -25 -25 -25 -25 -25 -25 -24 -24 -24 -23 -23 -22 -22 -22 -23 -22 -21 -20 -19 -18 -18 -17 -16 -16 -15 -15 -15 -14 -14 -14 -13 -13 -13 -12 -12 -12 -10 -11 -10 -11 -10 -10 -11
-25 -25 -25 -24 -25 -25 -24 -24 -24 -23 -23 -23 -22 -22 -21 -22 -22 -20 -20 -18 -18 -18 -17 -16 -16 -15 -15 -15 -14 -14 -13 -13 -13 -12 -11 -12 -12 -12 -12 -12 -11 -11 -11 -11
-24 -24 -24 -24 -25 -24 -24 -24 -23 -23 -22 -22 -22 -22 -22 -22 -21 -20 -20 -19 -18 -18 -17 -17 -16 -15 -15 -14 -14 -14 -14 -14 -13 -13 -13 -13 -12 -12 -12 -12 -12 -12 -12 -12
-24 -24 -24 -24 -24 -23 -23 -23 -22 -22 -22 -22 -22 -22 -22 -22 -20 -19 -19 -19 -17 -17 -17 -16 -16 -15 -15 -14 -14 -14 -15 -14 -14 -13 -13 -13 -12 -12 -12 -13 -14 -15 -14 -13
-24 -24 -24 -23 -23 -23 -22 -22 -22 -22 -22 -22 -21 -21 -20 -20 -20 -20 -20 -18 -18 -17 -17 -16 -16 -16 -16 -15 -14 -14 -14 -14 -14 -13 -13 -13 -13 -14 -14 -14 -14 -14 -13 -13
-23 -23 -23 -23 -23 -23 -22 -22 -22 -21 -21 -21 -21 -20 -19 -20 -20 -20 -19 -19 -18 -17 -17 -16 -16 -17 -16 -16 -15 -15 -14 -14 -14 -14 -15 -15 -15 -15 -15 -15 -15 -14 -14 -13
-22 -23 -23 -22 -22 -22 -22 -22 -22 -21 -21 -21 -21 -20 -20 -20 -20 -19 -18 -18 -18 -17 -17 -17 -17 -17 -17 -17 -16 -15 -15 -15 -15 -15 -15 -15 -15 -15 -14 -14 -15 -14 -14 -14
-22 -22 -22 -22 -22 -22 -21 -21 -21 -21 -21 -21 -20 -20 -19 -19 -19 -19 -19 -18 -18 -17 -17 -17 -17 -17 -17 -17 -17 -16 -17 -16 -16 -16 -17 -16 -16 -15 -15 -15 -14 -14 -14 -13
-21 -22 -22 -22 -22 -22 -21 -21 -21 -21 -21 -20 -20 -20 -20 -20 -19 -19 -18 -18 -17 -17 -17 -17 -17 -18 -17 -17 -17 -17 -17 -18 -18 -18 -17 -17 -16 -16 -16 -15 -15 -14 -14 -14
-22 -22 -22 -22 -22 -22 -21 -21 -21 -21 -21 -20 -20 -20 -20 -19 -18 -18 -19 -18 -18 -18 -17 -17 -18 -18 -17 -17 -18 -18 -17 -17 -17 -17 -17 -17 -17 -17 -16 -16 -15 -15 -15 -15

GFSNW_500_temp_003.txt.gz
Temp
-6 -7 -6 -6 -6 -6 -7 -8 -8 -8 -10 -10 -10 -9 -8 -8 -8 -9 -8 -8 -8 -9 -11 -10 -10 -8 -9 -11 -7 -7 -6 -6 -6 -7 -8 -8 -9 -8 -8 -8 -8 -7 -6 -5
-10 -10 -10 -10 -9 -10 -11 -11 -11 -14 -13 -12 -12 -11 -10 -10 -9 -9 -10 -8 -8 -10 -10 -10 -9 -9 -9 -11 -10 -9 -8 -6 -7 -8 -9 -8 -6 -6 -8 -8 -8 -8 -7 -6
-13 -13 -13 -14 -14 -14 -15 -15 -15 -17 -16 -15 -15 -15 -13 -12 -12 -12 -11 -9 -10 -11 -11 -11 -10 -10 -10 -11 -9 -9 -9 -10 -7 -8 -7 -9 -9 -8 -9 -8 -8 -8 -8 -7
-15 -17 -18 -18 -19 -19 -19 -19 -19 -20 -19 -20 -20 -18 -17 -16 -14 -13 -13 -12 -12 -11 -12 -12 -11 -10 -12 -10 -9 -9 -9 -9 -10 -7 -10 -10 -9 -9 -9 -9 -9 -8 -8 -8
-20 -21 -22 -24 -23 -23 -23 -23 -23 -23 -22 -21 -23 -21 -20 -18 -18 -17 -14 -15 -14 -14 -13 -14 -13 -13 -13 -11 -13 -10 -9 -10 -11 -11 -10 -10 -10 -9 -9 -10 -9 -9 -9 -8
-23 -23 -24 -24 -24 -24 -24 -24 -24 -24 -24 -24 -24 -23 -21 -21 -20 -19 -17 -17 -17 -15 -16 -16 -14 -15 -15 -13 -14 -12 -11 -12 -12 -11 -11 -10 -10 -9 -10 -10 -9 -10 -9 -8
-25 -25 -25 -24 -25 -25 -24 -25 -24 -25 -25 -25 -25 -25 -24 -22 -22 -21 -19 -19 -18 -17 -17 -14 -14 -14 -13 -13 -13 -13 -13 -13 -12 -11 -11 -11 -8 -10 -10 -10 -10 -10 -10 -10
-25 -25 -25 -25 -25 -25 -25 -25 -25 -25 -25 -26 -25 -25 -24 -23 -22 -21 -21 -20 -19 -18 -16 -15 -15 -16 -14 -12 -11 -11 -11 -11 -12 -12 -11 -9 -10 -10 -10 -10 -10 -10 -10 -10
-26 -26 -26 -26 -26 -26 -26 -25 -25 -25 -25 -26 -25 -25 -25 -23 -23 -22 -22 -21 -20 -19 -18 -17 -17 -16 -14 -14 -14 -12 -12 -11 -11 -12 -12 -11 -10 -10 -10 -10 -9 -10 -10 -10
-27 -26 -26 -26 -26 -26 -26 -26 -26 -25 -25 -26 -25 -25 -24 -24 -23 -22 -21 -21 -21 -20 -19 -18 -18 -18 -16 -15 -14 -13 -12 -12 -11 -12 -12 -11 -11 -10 -10 -11 -11 -11 -10 -10
-26 -26 -26 -27 -27 -27 -26 -26 -26 -26 -25 -26 -25 -25 -24 -24 -23 -23 -20 -21 -20 -19 -19 -18 -17 -18 -16 -16 -16 -13 -12 -12 -11 -13 -13 -12 -11 -11 -11 -11 -10 -11 -11 -10
-26 -27 -27 -27 -27 -27 -27 -27 -26 -26 -25 -26 -25 -25 -24 -23 -23 -22 -22 -21 -20 -19 -19 -17 -17 -17 -16 -15 -14 -14 -13 -12 -12 -13 -13 -13 -13 -12 -10 -11 -11 -11 -11 -11
-27 -27 -27 -27 -27 -27 -27 -26 -26 -26 -26 -25 -25 -25 -24 -24 -23 -23 -22 -21 -20 -20 -18 -17 -17 -15 -14 -14 -14 -14 -14 -14 -14 -12 -12 -12 -12 -12 -11 -11 -11 -11 -11 -11
-26 -27 -27 -27 -27 -26 -26 -26 -26 -26 -25 -25 -25 -25 -24 -24 -23 -23 -22 -22 -20 -20 -18 -17 -16 -15 -13 -14 -12 -12 -11 -13 -14 -13 -12 -11 -11 -11 -11 -11 -10 -10 -11 -11
-26 -26 -26 -26 -26 -26 -26 -26 -25 -25 -25 -25 -24 -24 -24 -23 -23 -23 -22 -22 -20 -19 -18 -17 -16 -16 -15 -14 -13 -12 -11 -12 -10 -12 -11 -11 -11 -11 -11 -11 -10 -10 -11 -11
-26 -26 -26 -26 -26 -26 -25 -25 -25 -25 -24 -24 -24 -23 -23 -23 -23 -22 -22 -21 -20 -19 -18 -17 -16 -15 -15 -14 -14 -13 -13 -12 -13 -11 -12 -11 -11 -11 -11 -11 -11 -11 -11 -11
-26 -26 -25 -25 -25 -25 -25 -24 -24 -24 -24 -23 -23 -23 -22 -22 -22 -22 -22 -21 -19 -18 -17 -17 -17 -16 -15 -14 -14 -15 -15 -14 -13 -13 -12 -12 -12 -11 -11 -11 -10 -11 -11 -11
-25 -25 -25 -24 -25 -24 -24 -24 -24 -23 -23 -23 -22 -22 -21 -22 -22 -21 -21 -20 -19 -18 -17 -16 -16 -15 -15 -15 -15 -15 -14 -13 -13 -13 -12 -12 -11 -11 -12 -11 -12 -12 -11 -11
-24 -24 -24 -24 -24 -24 -24 -23 -23 -23 -22 -22 -22 -21 -21 -21 -20 -20 -20 -19 -19 -18 -17 -16 -15 -16 -15 -15 -15 -14 -14 -13 -13 -13 -12 -12 -12 -12 -12 -11 -11 -10 -11 -11
-24 -24 -24 -24 -23 -23 -23 -22 -22 -22 -22 -22 -22 -21 -21 -20 -20 -20 -20 -20 -19 -18 -17 -17 -16 -16 -15 -15 -15 -14 -14 -14 -13 -13 -12 -12 -12 -12 -12 -12 -11 -12 -11 -11
-24 -24 -23 -23 -23 -23 -22 -22 -21 -21 -21 -21 -21 -21 -20 -20 -19 -19 -18 -17 -18 -17 -16 -16 -16 -16 -15 -15 -15 -15 -14 -14 -13 -13 -13 -13 -13 -12 -12 -12 -12 -12 -12 -11
-23 -23 -22 -22 -22 -22 -22 -22 -21 -21 -21 -20 -20 -20 -20 -19 -19 -18 -18 -18 -17 -17 -16 -16 -16 -16 -16 -15 -15 -15 -14 -14 -13 -13 -13 -13 -14 -13 -13 -13 -12 -12 -12 -13
-22 -22 -22 -22 -22 -21 -21 -21 -20 -21 -20 -20 -20 -20 -20 -19 -18 -17 -16 -18 -17 -17 -16 -16 -16 -16 -16 -16 -16 -15 -14 -14 -14 -14 -14 -14 -14 -13 -14 -13 -12 -14 -16 -16
-21 -21 -21 -21 -21 -21 -21 -21 -21 -20 -20 -20 -20 -20 -18 -19 -19 -18 -17 -17 -17 -17 -16 -17 -17 -16 -16 -16 -16 -15 -15 -15 -14 -14 -14 -13 -13 -14 -15 -15 -15 -15 -16 -15
-21 -21 -21 -21 -21 -21 -21 -21 -21 -21 -20 -20 -20 -20 -20 -19 -19 -18 -17 -17 -17 -17 -17 -17 -17 -17 -17 -16 -16 -16 -15 -15 -15 -14 -15 -14 -15 -16 -16 -16 -16 -16 -16 -15
-21 -21 -22 -22 -21 -21 -21 -21 -20 -20 -20 -20 -20 -20 -19 -19 -18 -18 -17 -18 -17 -17 -17 -17 -17 -17 -17 -17 -17 -17 -16 -16 -15 -15 -15 -15 -15 -15 -15 -15 -15 -15 -15 -15
-22 -21 -22 -21 -21 -21 -20 -20 -20 -20 -20 -19 -20 -19 -19 -18 -18 -18 -18 -17 -17 -17 -17 -17 -17 -17 -17 -17 -17 -17 -17 -17 -17 -17 -17 -17 -17 -16 -16 -16 -16 -15 -15 -15

GFSNW_500_temp_006.txt.gz
Temp
-6 -7 -7 -6 -6 -6 -6 -6 -6 -10 -8 -9 -9 -8 -8 -8 -7 -7 -8 -8 -8 -7 -9 -10 -10 -10 -9 -9 -9 -8 -7 -7 -6 -6 -8 -6 -6 -4 -5 -7 -6 -7 -6 -6
-8 -8 -8 -7 -7 -7 -8 -9 -9 -14 -13 -9 -11 -12 -11 -10 -10 -8 -10 -10 -9 -10 -10 -10 -9 -10 -10 -10 -10 -9 -9 -8 -8 -7 -8 -8 -8 -7 -7 -7 -7 -7 -7 -6
-9 -9 -11 -11 -12 -13 -14 -15 -15 -17 -19 -17 -17 -17 -15 -13 -12 -11 -12 -13 -12 -11 -11 -11 -10 -11 -10 -10 -10 -10 -10 -9 -8 -6 -6 -8 -8 -6 -6 -7 -8 -6 -7 -7
-13 -14 -16 -18 -19 -20 -21 -21 -20 -21 -20 -21 -21 -22 -19 -16 -14 -15 -16 -14 -13 -14 -13 -12 -12 -11 -11 -11 -11 -11 -11 -9 -9 -8 -8 -9 -8 -8 -9 -8 -5 -7 -5 -7
-18 -20 -22 -25 -24 -24 -24 -23 -23 -23 -23 -23 -23 -21 -21 -21 -19 -20 -18 -17 -15 -16 -12 -14 -13 -12 -12 -12 -12 -12 -11 -10 -9 -10 -9 -9 -9 -9 -8 -9 -7 -5 -7 -8
-23 -25 -25 -25 -26 -25 -24 -24 -24 -24 -24 -24 -24 -23 -22 -23 -22 -21 -20 -18 -17 -17 -16 -15 -13 -13 -12 -11 -12 -12 -12 -10 -10 -9 -8 -10 -9 -9 -9 -8 -9 -9 -9 -6
-27 -26 -26 -26 -26 -26 -25 -25 -25 -25 -25 -25 -25 -24 -24 -23 -23 -22 -21 -20 -18 -18 -17 -16 -15 -14 -13 -13 -13 -13 -13 -12 -10 -10 -11 -10 -7 -9 -9 -9 -9 -9 -9 -8
-27 -26 -26 -26 -26 -26 -26 -25 -26 -25 -25 -25 -25 -25 -25 -24 -24 -23 -22 -21 -20 -19 -18 -17 -16 -14 -16 -15 -14 -13 -13 -13 -11 -11 -11 -10 -10 -10 -9 -10 -10 -9 -9 -9
-26 -26 -26 -26 -26 -26 -26 -26 -26 -26 -25 -26 -25 -25 -25 -25 -24 -24 -24 -22 -22 -19 -18 -18 -17 -16 -16 -15 -14 -13 -12 -12 -12 -12 -11 -10 -9 -9 -9 -9 -8 -9 -10 -10
-26 -26 -26 -26 -26 -26 -26 -26 -26 -26 -25 -25 -25 -25 -25 -25 -25 -24 -24 -23 -21 -20 -20 -18 -17 -16 -16 -16 -15 -13 -13 -13 -12 -12 -11 -10 -11 -10 -10 -9 -9 -9 -9 -9
-26 -26 -26 -26 -26 -26 -26 -26 -26 -26 -25 -26 -25 -25 -25 -24 -24 -23 -22 -22 -21 -21 -20 -18 -18 -16 -16 -16 -15 -15 -13 -13 -12 -12 -12 -10 -11 -10 -9 -10 -10 -10 -10 -9
-26 -26 -27 -27 -27 -27 -27 -26 -26 -26 -26 -26 -25 -25 -25 -24 -24 -23 -22 -21 -21 -21 -20 -18 -18 -17 -16 -16 -16 -15 -14 -13 -14 -12 -11 -11 -11 -11 -11 -11 -10 -10 -9 -9
-26 -26 -26 -26 -27 -27 -26 -26 -26 -26 -26 -26 -25 -25 -25 -24 -24 -23 -22 -22 -22 -21 -20 -19 -18 -17 -16 -16 -14 -15 -15 -16 -15 -14 -14 -13 -11 -10 -10 -10 -9 -9 -9 -9
-26 -26 -26 -26 -26 -26 -26 -26 -26 -25 -25 -25 -24 -24 -24 -24 -24 -23 -23 -22 -21 -20 -20 -19 -18 -17 -16 -16 -16 -15 -14 -14 -15 -15 -14 -13 -12 -11 -10 -10 -9 -9 -10 -10
-25 -26 -26 -26 -26 -26 -26 -25 -25 -25 -25 -24 -24 -24 -24 -24 -23 -23 -22 -21 -21 -20 -19 -19 -18 -17 -16 -15 -15 -14 -14 -14 -14 -13 -14 -13 -12 -12 -11 -10 -10 -9 -10 -9
-25 -25 -25 -25 -25 -25 -25 -24 -24 -24 -24 -23 -23 -23 -23 -23 -23 -23 -23 -22 -21 -20 -20 -18 -18 -17 -16 -15 -15 -14 -14 -13 -12 -12 -12 -11 -12 -11 -11 -10 -11 -10 -10 -10
-24 -24 -24 -24 -24 -24 -24 -24 -23 -23 -23 -23 -23 -22 -22 -22 -22 -21 -22 -22 -21 -20 -20 -18 -17 -16 -16 -15 -14 -13 -13 -13 -12 -12 -11 -11 -12 -11 -11 -11 -11 -10 -9 -10
-24 -24 -23 -23 -23 -23 -23 -23 -23 -23 -22 -22 -22 -22 -21 -21 -20 -20 -21 -20 -19 -19 -18 -17 -17 -16 -16 -15 -14 -14 -13 -13 -13 -13 -12 -13 -12 -12 -12 -11 -11 -10 -10 -10
-23 -23 -23 -23 -22 -22 -22 -22 -22 -21 -21 -21 -21 -21 -20 -20 -20 -19 -19 -19 -18 -18 -18 -17 -16 -16 -15 -15 -14 -14 -14 -12 -13 -13 -14 -13 -13 -12 -11 -10 -10 -10 -10 -10
-22 -22 -22 -22 -22 -22 -21 -22 -21 -20 -21 -20 -21 -20 -20 -20 -19 -19 -19 -19 -18 -17 -16 -16 -16 -16 -16 -14 -15 -15 -14 -15 -14 -14 -13 -13 -12 -12 -12 -11 -11 -12 -11 -11
-22 -22 -22 -22 -21 -21 -21 -21 -20 -20 -19 -20 -20 -20 -19 -19 -19 -18 -18 -18 -17 -16 -16 -16 -16 -16 -15 -15 -15 -15 -15 -14 -14 -14 -14 -14 -13 -13 -12 -12 -12 -12 -11 -12
-21 -21 -21 -21 -21 -21 -20 -20 -20 -19 -19 -19 -19 -19 -18 -18 -18 -18 -17 -17 -17 -17 -16 -16 -16 -16 -15 -15 -15 -15 -14 -14 -14 -14 -13 -13 -13 -13 -13 -13 -13 -12 -12 -12
-20 -21 -20 -20 -21 -20 -20 -20 -20 -19 -19 -19 -19 -18 -18 -17 -18 -17 -17 -17 -17 -16 -16 -16 -16 -16 -16 -15 -15 -14 -14 -14 -14 -14 -13 -13 -14 -13 -13 -12 -12 -12 -12 -12
-20 -20 -20 -20 -21 -21 -20 -20 -19 -19 -18 -19 -19 -19 -17 -17 -17 -17 -17 -17 -16 -16 -16 -16 -16 -16 -16 -16 -15 -15 -14 -14 -14 -14 -14 -13 -13 -13 -13 -13 -13 -13 -12 -12
-20 -20 -20 -20 -20 -20 -20 -20 -19 -19 -18 -19 -19 -19 -18 -18 -17 -17 -17 -17 -17 -16 -16 -16 -17 -16 -16 -16 -16 -15 -15 -15 -14 -14 -14 -14 -14 -14 -14 -15 -14 -15 -15 -16
-21 -20 -20 -21 -20 -20 -19 -19 -19 -19 -19 -18 -18 -18 -18 -17 -17 -17 -17 -17 -17 -16 -17 -17 -17 -17 -16 -16 -16 -16 -16 -16 -15 -15 -14 -14 -14 -15 -15 -15 -16 -16 -15 -15
-21 -20 -20 -20 -19 -20 -19 -19 -19 -19 -19 -18 -18 -18 -18 -18 -17 -17 -17 -17 -17 -17 -17 -17 -17 -17 -17 -16 -16 -16 -16 -17 -17 -16 -16 -16 -15 -15 -16 -16 -16 -16 -17 -16

GFSNW_500_temp_009.txt.gz
Temp
-6 -6 -5 -5 -5 -5 -5 -5 -4 -9 -9 -8 -7 -6 -7 -7 -6 -7 -8 -7 -7 -8 -8 -7 -7 -5 -6 -9 -9 -8 -7 -7 -6 -5 -4 -5 -5 -5 -6 -5 -6 -7 -6 -4
-7 -7 -7 -6 -6 -6 -6 -6 -7 -12 -12 -10 -12 -11 -10 -10 -10 -9 -9 -9 -11 -10 -9 -9 -8 -7 -8 -10 -10 -9 -9 -7 -7 -6 -6 -6 -5 -6 -5 -6 -6 -5 -6 -2
-11 -11 -11 -12 -11 -11 -11 -11 -11 -15 -17 -16 -17 -16 -11 -12 -12 -11 -11 -10 -12 -10 -10 -10 -9 -8 -9 -10 -10 -9 -10 -9 -6 -5 -5 -7 -6 -6 -6 -6 -5 -4 -3 -4
-17 -17 -18 -18 -18 -18 -19 -20 -19 -21 -21 -22 -21 -21 -19 -18 -16 -16 -14 -13 -11 -12 -11 -11 -10 -10 -9 -9 -9 -10 -10 -10 -9 -7 -7 -8 -7 -7 -8 -7 -5 -6 -4 -5
-21 -20 -20 -23 -24 -26 -26 -25 -25 -24 -24 -24 -24 -23 -23 -23 -22 -19 -18 -19 -17 -15 -14 -13 -12 -10 -9 -9 -10 -10 -10 -10 -10 -9 -9 -9 -8 -8 -8 -8 -7 -6 -6 -4
-23 -23 -25 -26 -26 -26 -26 -26 -26 -25 -24 -24 -24 -24 -24 -24 -23 -22 -21 -21 -20 -19 -16 -15 -13 -12 -11 -10 -10 -10 -10 -10 -10 -9 -9 -10 -9 -6 -8 -8 -8 -8 -6 -4
-24 -24 -25 -26 -26 -26 -26 -26 -26 -26 -25 -25 -25 -25 -25 -24 -23 -23 -22 -22 -21 -20 -19 -17 -15 -14 -11 -10 -10 -11 -10 -11 -11 -11 -10 -10 -5 -7 -8 -9 -9 -8 -8 -7
-25 -25 -25 -26 -26 -26 -26 -26 -26 -26 -25 -26 -26 -25 -24 -24 -24 -24 -23 -23 -22 -21 -20 -18 -17 -16 -15 -13 -11 -12 -11 -12 -11 -11 -11 -10 -9 -7 -8 -9 -9 -9 -9 -9
-25 -25 -25 -26 -26 -26 -26 -26 -26 -26 -25 -26 -25 -25 -25 -24 -24 -25 -24 -23 -23 -22 -22 -20 -18 -17 -16 -14 -12 -12 -12 -13 -13 -12 -12 -10 -8 -9 -9 -9 -9 -9 -9 -9
-25 -25 -25 -26 -26 -26 -26 -26 -26 -26 -25 -26 -25 -25 -25 -25 -25 -24 -24 -24 -23 -22 -22 -21 -19 -18 -17 -15 -13 -14 -14 -14 -13 -12 -12 -10 -10 -10 -10 -10 -9 -9 -8 -8
-25 -25 -26 -26 -26 -26 -26 -26 -26 -26 -25 -26 -25 -25 -25 -25 -25 -24 -24 -23 -23 -22 -22 -21 -19 -18 -18 -16 -15 -15 -15 -14 -13 -13 -13 -12 -11 -11 -10 -10 -9 -9 -8 -8
-26 -26 -26 -26 -26 -26 -26 -26 -26 -26 -25 -25 -25 -25 -25 -25 -25 -24 -24 -23 -23 -23 -22 -21 -20 -19 -17 -17 -16 -15 -15 -13 -12 -12 -13 -13 -12 -11 -10 -10 -9 -9 -10 -9
-25 -25 -26 -26 -26 -26 -26 -26 -26 -26 -25 -25 -25 -25 -25 -25 -24 -24 -24 -23 -22 -21 -21 -21 -20 -20 -18 -17 -17 -16 -15 -13 -13 -12 -12 -10 -11 -11 -10 -8 -8 -9 -9 -9
-25 -25 -25 -25 -25 -25 -25 -25 -25 -25 -25 -25 -24 -24 -24 -24 -23 -23 -23 -23 -22 -21 -21 -21 -20 -19 -18 -17 -16 -16 -15 -14 -13 -12 -12 -11 -11 -10 -10 -10 -9 -8 -10 -9
-24 -24 -24 -25 -25 -25 -24 -24 -25 -25 -24 -24 -24 -24 -23 -23 -23 -23 -23 -22 -21 -21 -21 -21 -20 -18 -18 -17 -16 -16 -15 -14 -13 -11 -12 -11 -11 -10 -10 -11 -11 -10 -9 -9
-23 -24 -24 -24 -24 -24 -24 -23 -23 -23 -23 -23 -23 -23 -23 -23 -22 -22 -22 -22 -22 -22 -20 -20 -19 -17 -17 -17 -16 -15 -14 -13 -13 -12 -12 -11 -9 -9 -9 -10 -11 -10 -10 -9
-23 -23 -23 -23 -22 -22 -22 -22 -22 -22 -23 -23 -22 -22 -22 -22 -22 -21 -21 -21 -21 -21 -20 -19 -19 -17 -17 -16 -15 -14 -14 -13 -13 -13 -12 -12 -12 -10 -10 -10 -11 -11 -10 -10
-22 -22 -22 -22 -22 -22 -22 -21 -22 -21 -21 -21 -22 -21 -21 -20 -20 -20 -20 -20 -20 -19 -19 -19 -17 -17 -17 -16 -15 -14 -14 -13 -13 -13 -13 -13 -11 -11 -11 -11 -11 -10 -10 -11
-21 -21 -21 -21 -21 -21 -21 -21 -20 -20 -20 -20 -21 -21 -20 -20 -20 -19 -19 -19 -18 -19 -17 -18 -17 -16 -16 -16 -15 -13 -13 -13 -13 -12 -12 -12 -12 -12 -11 -12 -13 -12 -12 -11
-20 -20 -20 -20 -20 -20 -20 -20 -20 -20 -20 -20 -20 -19 -19 -19 -19 -19 -18 -18 -17 -17 -17 -17 -16 -16 -16 -15 -15 -14 -14 -13 -13 -13 -13 -13 -13 -12 -12 -12 -13 -12 -11 -11
-20 -20 -20 -19 -19 -19 -19 -19 -19 -19 -19 -20 -19 -19 -18 -19 -18 -18 -17 -17 -17 -17 -16 -16 -16 -16 -16 -15 -15 -15 -14 -14 -14 -14 -13 -14 -13 -13 -14 -13 -12 -11 -12 -11
-19 -20 -19 -19 -19 -19 -19 -19 -19 -19 -19 -19 -18 -18 -18 -18 -17 -17 -17 -17 -17 -16 -17 -16 -16 -16 -15 -15 -15 -15 -15 -15 -15 -14 -14 -13 -13 -13 -13 -12 -12 -12 -11 -11
-19 -20 -19 -18 -19 -20 -20 -18 -19 -18 -18 -18 -18 -17 -17 -17 -17 -17 -17 -17 -16 -16 -16 -16 -16 -16 -16 -15 -15 -15 -15 -15 -15 -14 -13 -14 -13 -13 -13 -13 -12 -12 -11 -11
-20 -19 -19 -18 -19 -20 -19 -19 -17 -19 -17 -18 -18 -17 -17 -17 -16 -16 -17 -16 -16 -16 -16 -16 -16 -16 -16 -16 -15 -15 -14 -14 -15 -14 -14 -14 -13 -14 -13 -13 -12 -12 -12 -12
-19 -19 -19 -19 -20 -20 -19 -19 -19 -18 -17 -18 -17 -17 -17 -17 -16 -16 -16 -16 -16 -17 -16 -16 -16 -16 -16 -16 -16 -15 -15 -15 -15 -15 -14 -14 -14 -14 -13 -12 -13 -13 -13 -13
-19 -19 -19 -20 -20 -19 -19 -19 -18 -18 -17 -17 -17 -17 -17 -17 -17 -16 -16 -16 -17 -17 -17 -17 -16 -16 -16 -16 -16 -16 -16 -15 -15 -15 -15 -15 -14 -14 -15 -14 -15 -15 -15 -14
-20 -20 -19 -19 -19 -19 -19 -18 -18 -18 -18 -17 -17 -17 -17 -17 -17 -17 -17 -17 -17 -17 -17 -17 -17 -16 -17 -16 -16 -16 -17 -16 -16 -16 -16 -16 -16 -15 -15 -15 -15 -15 -15 -15

GFSNW_500_temp_015.txt.gz
Temp
-13 -13 -12 -12 -12 -12 -11 -11 -10 -9 -9 -9 -8 -7 -6 -6 -7 -7 -6 -6 -6 -6 -7 -7 -6 -6 -5 -4 -4 -5 -4 -3 -3 -4 -5 -5 -4 -5 -5 -4 -2 -2 -2 -2
-16 -18 -19 -19 -18 -18 -18 -18 -17 -14 -13 -12 -11 -10 -9 -8 -8 -9 -8 -6 -6 -6 -7 -8 -8 -6 -6 -5 -5 -5 -5 -4 -4 -3 -5 -5 -4 -4 -5 -4 -3 -3 -3 -2
-22 -22 -22 -22 -22 -23 -23 -23 -23 -22 -20 -19 -17 -15 -13 -12 -10 -11 -10 -9 -8 -7 -7 -8 -8 -8 -7 -7 -6 -6 -5 -5 -4 -3 -4 -5 -4 -4 -4 -3 -3 -2 -2 -2
-22 -23 -23 -23 -23 -23 -24 -24 -24 -25 -25 -23 -22 -20 -19 -16 -15 -14 -13 -13 -11 -10 -10 -10 -9 -8 -8 -8 -7 -7 -7 -5 -5 -4 -4 -5 -4 -4 -4 -3 -2 -2 -2 -2
-23 -24 -24 -24 -24 -24 -25 -25 -25 -26 -26 -26 -26 -25 -24 -23 -22 -20 -20 -18 -15 -14 -13 -12 -12 -10 -10 -11 -10 -9 -8 -7 -7 -5 -4 -5 -5 -3 -3 -2 -3 -4 -3 -3
-24 -25 -25 -25 -25 -25 -25 -25 -26 -26 -26 -27 -26 -26 -26 -25 -25 -25 -24 -23 -21 -20 -17 -15 -14 -14 -12 -11 -12 -11 -10 -9 -8 -6 -6 -6 -5 -3 -3 -3 -3 -4 -3 -3
-24 -25 -25 -26 -26 -26 -26 -26 -26 -26 -26 -26 -26 -26 -26 -26 -25 -25 -24 -24 -24 -23 -22 -19 -17 -16 -14 -12 -12 -12 -11 -11 -10 -8 -9 -8 -3 -5 -6 -5 -4 -4 -4 -4
-24 -25 -25 -26 -26 -26 -26 -26 -26 -26 -26 -26 -26 -26 -26 -26 -25 -25 -25 -25 -25 -24 -24 -23 -21 -19 -17 -15 -13 -13 -13 -12 -11 -10 -9 -7 -6 -7 -7 -7 -6 -5 -4 -4
-24 -25 -25 -25 -26 -26 -26 -26 -26 -26 -26 -26 -26 -26 -26 -26 -26 -25 -25 -25 -25 -24 -24 -23 -23 -21 -20 -18 -15 -13 -13 -14 -13 -12 -11 -10 -8 -9 -8 -7 -8 -6 -5 -5
-23 -24 -25 -25 -25 -26 -26 -26 -26 -26 -26 -27 -26 -26 -26 -26 -25 -26 -25 -25 -24 -24 -24 -24 -23 -22 -21 -20 -19 -16 -16 -14 -14 -13 -12 -11 -10 -10 -10 -10 -6 -7 -6 -7
-23 -23 -24 -24 -25 -25 -26 -25 -26 -26 -26 -26 -26 -25 -25 -25 -25 -25 -25 -25 -24 -24 -24 -23 -23 -23 -22 -22 -20 -19 -18 -17 -15 -13 -14 -13 -12 -11 -11 -11 -9 -8 -7 -8
-22 -22 -23 -23 -24 -24 -25 -25 -25 -25 -25 -25 -25 -25 -25 -25 -25 -25 -25 -25 -24 -24 -24 -24 -23 -23 -22 -22 -22 -21 -19 -17 -16 -15 -13 -13 -13 -12 -11 -11 -11 -10 -8 -8
-21 -22 -22 -23 -23 -23 -24 -24 -24 -25 -25 -25 -25 -25 -25 -25 -25 -25 -25 -25 -25 -24 -23 -23 -23 -22 -22 -22 -21 -21 -20 -18 -17 -16 -15 -13 -14 -12 -12 -11 -11 -11 -10 -9
-21 -21 -21 -22 -22 -23 -23 -23 -24 -24 -24 -24 -24 -24 -24 -24 -24 -24 -24 -23 -23 -23 -23 -22 -22 -22 -22 -22 -21 -20 -20 -19 -17 -16 -15 -13 -13 -13 -12 -11 -11 -11 -11 -11
-20 -20 -20 -20 -21 -22 -22 -22 -23 -23 -23 -23 -23 -22 -22 -22 -22 -22 -22 -22 -23 -22 -21 -21 -21 -21 -21 -21 -21 -19 -19 -18 -18 -17 -15 -14 -12 -11 -11 -11 -11 -11 -11 -10
-20 -20 -19 -20 -20 -21 -21 -21 -22 -22 -22 -22 -22 -22 -22 -21 -22 -21 -21 -21 -21 -21 -21 -21 -21 -21 -20 -20 -18 -18 -18 -17 -17 -17 -14 -13 -13 -11 -10 -12 -12 -10 -10 -11
-19 -19 -19 -19 -19 -19 -20 -20 -21 -21 -21 -21 -21 -21 -21 -21 -20 -21 -21 -21 -21 -21 -20 -20 -20 -19 -19 -18 -18 -17 -18 -17 -15 -16 -14 -13 -13 -11 -12 -12 -12 -12 -11 -11
-19 -19 -19 -19 -18 -19 -19 -19 -19 -19 -20 -20 -20 -20 -20 -20 -20 -20 -21 -21 -21 -20 -19 -19 -19 -18 -18 -17 -17 -17 -17 -17 -15 -14 -14 -12 -12 -12 -11 -12 -13 -13 -12 -11
-18 -19 -18 -19 -18 -18 -18 -18 -18 -18 -18 -18 -19 -19 -19 -19 -19 -19 -19 -19 -19 -19 -18 -18 -18 -18 -17 -17 -17 -15 -15 -15 -14 -14 -15 -12 -12 -12 -12 -12 -12 -13 -12 -11
-18 -18 -19 -18 -18 -18 -18 -17 -18 -18 -18 -18 -18 -18 -18 -18 -18 -18 -18 -18 -18 -18 -18 -18 -18 -17 -17 -16 -16 -15 -15 -15 -15 -14 -14 -14 -13 -12 -12 -12 -11 -12 -12 -11
-18 -18 -19 -18 -17 -17 -18 -17 -18 -18 -18 -17 -17 -17 -17 -17 -17 -17 -17 -18 -18 -18 -17 -17 -17 -16 -16 -16 -15 -15 -14 -14 -14 -14 -15 -13 -13 -13 -12 -12 -12 -11 -11 -11
-17 -18 -18 -17 -16 -16 -17 -18 -18 -17 -18 -17 -17 -17 -17 -17 -17 -17 -17 -17 -17 -17 -17 -17 -16 -16 -16 -15 -15 -15 -15 -14 -15 -14 -14 -13 -14 -13 -13 -13 -13 -12 -11 -11
-17 -17 -16 -16 -17 -17 -17 -17 -17 -17 -17 -17 -17 -17 -17 -17 -17 -17 -17 -17 -17 -17 -17 -17 -16 -16 -16 -15 -15 -14 -14 -15 -14 -14 -14 -14 -14 -14 -13 -13 -12 -12 -11 -10
-17 -16 -16 -16 -17 -18 -18 -17 -17 -17 -17 -17 -17 -17 -17 -17 -16 -16 -16 -17 -17 -17 -16 -16 -16 -16 -15 -15 -15 -15 -14 -14 -14 -14 -14 -14 -14 -14 -14 -12 -12 -12 -11 -13
-17 -16 -16 -17 -18 -17 -17 -17 -17 -17 -17 -16 -17 -16 -17 -16 -16 -16 -16 -17 -17 -17 -17 -17 -16 -16 -16 -15 -15 -15 -15 -14 -14 -14 -14 -14 -14 -14 -14 -14 -14 -14 -14 -14
-17 -18 -18 -18 -18 -18 -17 -17 -17 -17 -16 -16 -17 -16 -16 -16 -16 -16 -17 -17 -17 -17 -17 -17 -17 -17 -16 -16 -16 -16 -16 -15 -15 -15 -15 -14 -14 -14 -14 -15 -14 -14 -15 -14
-17 -18 -17 -18 -18 -18 -17 -17 -18 -18 -17 -17 -17 -16 -16 -16 -16 -16 -17 -17 -17 -17 -17 -17 -17 -17 -17 -17 -16 -16 -16 -16 -16 -16 -16 -15 -15 -15 -15 -15 -14 -15 -15 -15

GFSNW_500_temp_021.txt.gz
Temp
-18 -18 -19 -20 -21 -22 -23 -24 -24 -24 -24 -23 -23 -21 -19 -17 -15 -11 -10 -9 -9 -9 -9 -9 -10 -8 -8 -7 -6 -6 -6 -5 -5 -5 -5 -5 -5 -5 -5 -5 -4 -3 -3 -2
-18 -19 -19 -20 -21 -22 -23 -24 -25 -25 -25 -24 -24 -23 -22 -21 -19 -16 -13 -11 -10 -10 -10 -10 -10 -10 -8 -8 -8 -7 -6 -6 -6 -5 -5 -5 -4 -4 -4 -4 -4 -2 -2 -1
-18 -19 -20 -21 -21 -22 -24 -24 -25 -26 -26 -25 -25 -24 -24 -23 -22 -20 -17 -15 -13 -12 -11 -11 -11 -11 -10 -9 -8 -8 -7 -7 -7 -6 -5 -6 -5 -4 -4 -4 -3 -2 -1 -2
-19 -19 -20 -21 -22 -22 -24 -24 -25 -26 -26 -26 -26 -25 -25 -25 -24 -23 -21 -20 -18 -16 -14 -13 -12 -12 -11 -10 -9 -9 -9 -8 -7 -7 -6 -6 -5 -5 -5 -4 -4 -3 -2 -2
-19 -19 -20 -21 -22 -23 -23 -24 -25 -26 -26 -27 -27 -26 -26 -26 -26 -25 -24 -23 -23 -20 -18 -15 -14 -13 -13 -11 -10 -10 -9 -9 -8 -8 -7 -6 -6 -5 -5 -5 -4 -4 -3 -3
-19 -20 -20 -21 -22 -22 -23 -24 -25 -26 -26 -26 -26 -26 -26 -26 -26 -27 -26 -24 -24 -23 -23 -19 -16 -15 -14 -13 -12 -11 -10 -9 -9 -8 -8 -7 -6 -5 -5 -6 -5 -5 -3 -3
-19 -20 -20 -20 -21 -22 -22 -24 -24 -25 -26 -26 -26 -26 -26 -26 -26 -26 -26 -26 -25 -24 -24 -23 -20 -16 -15 -14 -13 -12 -11 -10 -10 -9 -8 -7 -6 -6 -6 -6 -6 -5 -4 -4
-18 -20 -20 -20 -21 -22 -22 -23 -24 -25 -26 -26 -26 -26 -26 -26 -26 -26 -26 -26 -26 -25 -24 -23 -23 -20 -17 -16 -14 -13 -12 -12 -11 -10 -9 -7 -6 -6 -6 -6 -5 -5 -5 -4
-18 -20 -20 -20 -21 -21 -22 -22 -23 -24 -25 -25 -26 -26 -26 -26 -26 -26 -26 -26 -26 -25 -25 -25 -24 -22 -20 -18 -16 -14 -13 -13 -12 -10 -9 -8 -7 -7 -6 -6 -5 -6 -5 -5
-18 -19 -19 -20 -20 -21 -21 -22 -22 -23 -24 -25 -25 -25 -26 -26 -26 -26 -26 -26 -26 -25 -25 -25 -25 -24 -23 -20 -18 -17 -15 -13 -12 -12 -10 -8 -7 -8 -7 -6 -6 -6 -6 -6
-18 -18 -18 -19 -19 -20 -21 -21 -22 -22 -23 -24 -25 -25 -25 -25 -25 -26 -25 -25 -25 -25 -25 -25 -25 -24 -23 -22 -20 -19 -17 -15 -13 -12 -10 -8 -7 -9 -7 -7 -7 -6 -6 -6
-17 -18 -18 -19 -19 -19 -20 -20 -21 -22 -22 -23 -24 -24 -24 -25 -25 -25 -25 -25 -25 -25 -25 -25 -25 -24 -24 -23 -20 -19 -17 -16 -15 -13 -10 -9 -8 -9 -9 -8 -8 -7 -7 -7
-17 -17 -19 -18 -18 -19 -19 -19 -20 -21 -22 -22 -23 -23 -24 -24 -24 -24 -24 -25 -24 -24 -24 -24 -24 -24 -23 -22 -21 -20 -18 -18 -15 -14 -12 -9 -10 -9 -8 -8 -8 -8 -8 -8
-17 -18 -18 -18 -18 -18 -19 -19 -19 -20 -21 -22 -22 -22 -22 -23 -23 -23 -23 -23 -23 -23 -23 -23 -23 -23 -22 -22 -22 -21 -21 -19 -16 -14 -12 -12 -11 -11 -9 -8 -8 -9 -8 -8
-17 -18 -18 -18 -18 -18 -18 -18 -18 -19 -20 -20 -21 -21 -21 -22 -22 -22 -22 -22 -22 -22 -22 -22 -22 -22 -21 -21 -21 -21 -21 -21 -18 -15 -14 -12 -12 -10 -10 -9 -9 -10 -9 -9
-17 -17 -18 -18 -18 -18 -18 -18 -18 -18 -19 -19 -19 -20 -21 -21 -21 -21 -21 -21 -21 -21 -21 -21 -21 -21 -20 -20 -20 -21 -21 -20 -20 -17 -16 -13 -12 -11 -10 -10 -11 -11 -10 -10
-17 -17 -17 -17 -18 -18 -18 -18 -18 -18 -18 -18 -19 -19 -20 -20 -20 -20 -20 -20 -20 -20 -20 -19 -19 -19 -18 -18 -19 -19 -19 -19 -19 -20 -20 -17 -15 -13 -12 -12 -12 -12 -12 -11
-17 -17 -17 -17 -18 -18 -18 -17 -17 -17 -17 -17 -18 -18 -19 -19 -19 -19 -19 -19 -19 -19 -19 -19 -18 -18 -18 -18 -17 -18 -18 -18 -18 -19 -20 -19 -17 -15 -14 -13 -13 -13 -12 -11
-17 -16 -17 -18 -18 -18 -18 -17 -16 -17 -17 -17 -18 -18 -18 -18 -18 -18 -18 -18 -18 -18 -18 -17 -17 -17 -17 -17 -17 -17 -16 -17 -17 -18 -19 -18 -17 -15 -15 -13 -13 -13 -12 -12
-17 -17 -17 -18 -17 -17 -17 -16 -16 -16 -16 -17 -17 -18 -18 -18 -18 -18 -18 -18 -18 -18 -17 -17 -16 -16 -16 -16 -15 -14 -16 -16 -17 -17 -17 -16 -15 -14 -13 -13 -11 -13 -13 -13
-17 -18 -17 -17 -17 -17 -16 -15 -16 -16 -16 -17 -17 -17 -17 -17 -17 -17 -17 -17 -17 -17 -17 -16 -16 -16 -15 -15 -15 -15 -15 -15 -15 -16 -16 -16 -15 -15 -13 -14 -12 -13 -13 -12
-17 -18 -17 -17 -16 -16 -16 -16 -16 -17 -17 -17 -17 -17 -17 -17 -17 -16 -17 -17 -17 -17 -17 -16 -16 -16 -15 -14 -15 -14 -14 -14 -14 -15 -15 -14 -14 -14 -14 -14 -13 -13 -12 -13
-18 -18 -17 -15 -16 -16 -16 -16 -17 -17 -17 -17 -17 -17 -17 -17 -16 -16 -16 -16 -17 -17 -17 -17 -17 -15 -16 -15 -15 -15 -15 -15 -15 -14 -14 -14 -14 -14 -14 -13 -13 -14 -13 -12
-18 -17 -16 -16 -16 -17 -17 -17 -17 -17 -17 -17 -17 -17 -17 -17 -16 -16 -17 -17 -16 -17 -17 -17 -17 -17 -16 -16 -15 -15 -15 -15 -14 -15 -14 -15 -15 -14 -14 -14 -13 -13 -13 -12
-18 -16 -16 -16 -17 -17 -17 -17 -17 -17 -17 -17 -17 -17 -17 -17 -16 -16 -17 -17 -17 -18 -17 -17 -17 -17 -16 -16 -16 -15 -15 -15 -15 -16 -15 -15 -15 -15 -15 -14 -14 -14 -13 -13
-17 -17 -18 -18 -18 -17 -17 -17 -17 -17 -18 -18 -18 -18 -17 -16 -16 -16 -16 -17 -17 -18 -18 -17 -17 -17 -17 -16 -16 -16 -16 -15 -16 -16 -16 -16 -16 -15 -15 -16 -15 -15 -14 -14
-17 -18 -18 -18 -18 -18 -18 -17 -17 -17 -18 -18 -18 -18 -17 -17 -16 -16 -16 -17 -18 -18 -18 -18 -17 -17 -17 -17 -17 -17 -17 -17 -17 -17 -16 -16 -16 -16 -16 -16 -17 -17 -16 -16

GFSNW_500_temp_024.txt.gz
Temp
-18 -17 -18 -18 -18 -19 -20 -21 -22 -23 -23 -25 -25 -25 -24 -24 -22 -19 -16 -14 -13 -12 -10 -11 -11 -9 -8 -8 -6 -6 -6 -6 -6 -5 -5 -5 -5 -5 -5 -4 -3 -3 -3 -6
-18 -18 -17 -18 -18 -19 -20 -21 -22 -23 -24 -25 -25 -25 -25 -24 -23 -22 -20 -18 -16 -14 -14 -13 -12 -10 -9 -9 -8 -7 -6 -6 -7 -6 -6 -5 -5 -5 -4 -5 -5 -4 -4 -3
-18 -18 -17 -18 -19 -20 -20 -22 -23 -24 -24 -25 -26 -26 -26 -25 -24 -23 -22 -21 -18 -17 -17 -15 -13 -12 -11 -10 -9 -8 -7 -7 -7 -6 -6 -6 -5 -4 -5 -5 -4 -3 -3 -4
-18 -17 -17 -18 -19 -20 -21 -22 -23 -24 -24 -25 -26 -26 -26 -26 -25 -24 -23 -23 -22 -20 -19 -18 -16 -14 -12 -11 -10 -9 -9 -8 -7 -7 -6 -6 -5 -5 -5 -4 -4 -3 -4 -3
-18 -18 -18 -18 -19 -20 -21 -22 -23 -24 -24 -25 -26 -26 -26 -26 -26 -26 -25 -24 -24 -24 -20 -19 -18 -15 -14 -12 -10 -10 -10 -9 -8 -7 -7 -6 -5 -5 -5 -5 -4 -4 -4 -3
-17 -17 -17 -18 -19 -20 -21 -22 -22 -23 -24 -25 -25 -26 -26 -26 -26 -26 -26 -26 -24 -23 -23 -21 -19 -17 -16 -13 -12 -11 -10 -10 -8 -8 -8 -8 -6 -5 -5 -5 -5 -5 -4 -4
-18 -17 -18 -18 -19 -20 -21 -21 -22 -23 -23 -25 -25 -25 -26 -26 -26 -26 -26 -26 -25 -24 -23 -23 -20 -19 -17 -15 -13 -12 -11 -10 -10 -10 -8 -8 -6 -7 -7 -7 -6 -6 -5 -5
-17 -18 -17 -18 -19 -19 -20 -21 -22 -22 -23 -23 -25 -25 -25 -26 -26 -26 -26 -26 -26 -25 -24 -23 -22 -20 -18 -16 -15 -13 -12 -11 -11 -10 -9 -9 -8 -7 -7 -7 -6 -6 -5 -5
-17 -18 -17 -18 -19 -19 -19 -20 -21 -22 -23 -23 -24 -25 -25 -25 -25 -25 -26 -26 -26 -26 -25 -24 -23 -24 -22 -19 -16 -15 -14 -13 -11 -11 -10 -9 -9 -8 -7 -6 -7 -7 -6 -6
-17 -18 -17 -18 -19 -19 -19 -19 -20 -21 -22 -23 -23 -24 -25 -25 -25 -25 -26 -26 -26 -26 -25 -25 -24 -23 -22 -21 -19 -17 -16 -14 -12 -12 -10 -10 -10 -9 -7 -8 -9 -7 -7 -6
-17 -17 -17 -18 -18 -19 -19 -19 -19 -20 -21 -22 -23 -23 -24 -24 -25 -25 -25 -25 -26 -25 -25 -25 -25 -24 -23 -21 -20 -20 -17 -15 -14 -13 -11 -10 -9 -9 -8 -8 -8 -7 -6 -6
-17 -17 -17 -18 -18 -18 -19 -19 -19 -20 -20 -21 -22 -22 -23 -24 -24 -24 -24 -25 -25 -25 -25 -24 -24 -24 -23 -23 -20 -20 -18 -16 -16 -14 -12 -10 -11 -10 -8 -8 -8 -7 -7 -6
-17 -17 -17 -18 -18 -18 -18 -18 -19 -19 -19 -20 -21 -21 -21 -22 -23 -23 -23 -24 -24 -24 -24 -24 -24 -24 -23 -23 -22 -20 -18 -17 -15 -14 -11 -9 -8 -8 -9 -8 -9 -8 -8 -7
-17 -16 -17 -18 -18 -17 -18 -18 -18 -19 -19 -19 -20 -20 -21 -21 -22 -22 -22 -22 -23 -23 -23 -23 -23 -23 -23 -23 -22 -20 -18 -16 -15 -14 -12 -11 -10 -9 -9 -10 -9 -8 -8 -7
-16 -16 -17 -17 -17 -17 -18 -18 -18 -18 -18 -19 -19 -19 -20 -20 -20 -20 -21 -21 -21 -22 -22 -22 -22 -22 -21 -21 -21 -21 -19 -18 -15 -14 -14 -13 -11 -11 -9 -7 -8 -8 -8 -8
-16 -17 -17 -16 -16 -17 -17 -18 -18 -18 -18 -18 -18 -19 -19 -19 -19 -19 -20 -20 -20 -20 -20 -20 -20 -20 -19 -20 -20 -19 -18 -18 -18 -15 -14 -13 -12 -10 -10 -9 -8 -8 -8 -8
-17 -17 -16 -16 -16 -17 -18 -18 -18 -18 -18 -18 -18 -18 -18 -18 -19 -19 -19 -19 -19 -19 -19 -19 -19 -18 -18 -18 -18 -19 -18 -18 -17 -18 -16 -13 -12 -11 -10 -9 -9 -8 -8 -7
-16 -16 -16 -16 -16 -17 -18 -18 -18 -18 -18 -17 -18 -18 -18 -18 -18 -18 -18 -18 -18 -19 -19 -18 -18 -18 -17 -17 -16 -17 -17 -17 -17 -17 -17 -17 -12 -11 -10 -10 -9 -9 -9 -9
-16 -16 -16 -16 -16 -17 -17 -17 -17 -17 -17 -17 -17 -17 -17 -17 -18 -18 -18 -18 -18 -18 -18 -18 -17 -16 -16 -15 -15 -16 -16 -17 -17 -18 -18 -18 -15 -12 -10 -11 -10 -10 -10 -10
-16 -16 -16 -17 -16 -17 -17 -17 -16 -16 -16 -17 -17 -17 -17 -17 -17 -17 -17 -18 -18 -18 -17 -17 -16 -16 -16 -15 -16 -15 -16 -17 -17 -18 -19 -19 -18 -16 -14 -13 -13 -13 -11 -11
-17 -17 -17 -17 -16 -17 -16 -16 -16 -16 -16 -17 -17 -17 -17 -17 -16 -16 -16 -17 -17 -17 -17 -17 -17 -16 -15 -15 -16 -15 -16 -17 -18 -19 -20 -17 -15 -15 -15 -13 -13 -12 -10 -10
-18 -17 -17 -17 -16 -15 -15 -16 -16 -16 -17 -17 -17 -17 -17 -17 -17 -16 -16 -16 -16 -17 -17 -17 -17 -16 -16 -15 -15 -16 -16 -17 -16 -16 -17 -16 -15 -14 -14 -14 -13 -13 -12 -12
-18 -18 -17 -17 -16 -16 -16 -16 -17 -17 -17 -17 -17 -17 -17 -17 -16 -16 -16 -17 -17 -17 -17 -17 -17 -16 -16 -16 -15 -15 -15 -15 -15 -16 -15 -15 -15 -14 -14 -13 -13 -13 -13 -11
-18 -17 -16 -16 -16 -16 -16 -16 -17 -17 -17 -17 -18 -18 -18 -17 -16 -15 -15 -15 -16 -17 -17 -17 -17 -17 -16 -16 -16 -16 -16 -15 -15 -15 -15 -14 -14 -14 -14 -14 -13 -13 -13 -13
-17 -16 -16 -17 -17 -17 -17 -17 -16 -16 -17 -17 -18 -18 -18 -17 -16 -16 -16 -15 -16 -16 -17 -17 -17 -17 -17 -17 -16 -16 -16 -16 -16 -16 -15 -14 -14 -14 -14 -14 -14 -13 -13 -14
-17 -17 -17 -17 -17 -17 -17 -17 -17 -17 -16 -16 -17 -18 -18 -18 -17 -17 -17 -17 -16 -16 -17 -16 -17 -18 -17 -17 -17 -17 -17 -16 -16 -16 -16 -15 -15 -15 -14 -14 -14 -14 -14 -14
-17 -17 -17 -17 -17 -17 -17 -17 -17 -17 -17 -17 -17 -18 -18 -18 -18 -18 -18 -18 -18 -18 -17 -17 -17 -17 -17 -17 -17 -17 -17 -17 -17 -17 -16 -16 -17 -16 -16 -16 -16 -16 -16 -15

GFSNW_500_temp_027.txt.gz
Temp
-17 -17 -17 -17 -17 -17 -17 -18 -19 -20 -21 -23 -25 -25 -25 -24 -24 -24 -23 -20 -18 -16 -15 -13 -11 -14 -13 -8 -8 -6 -7 -9 -8 -5 -5 -5 -5 -5 -4 -4 -4 -6 -6 -6
-17 -17 -17 -17 -17 -17 -18 -19 -20 -20 -21 -22 -24 -25 -25 -26 -26 -24 -24 -22 -21 -17 -16 -16 -13 -14 -9 -8 -9 -9 -11 -8 -8 -10 -9 -6 -5 -5 -5 -5 -6 -6 -6 -7
-17 -17 -16 -17 -17 -18 -18 -19 -20 -21 -22 -22 -24 -25 -25 -26 -26 -25 -24 -23 -22 -19 -18 -17 -16 -14 -10 -10 -10 -8 -7 -6 -6 -8 -6 -7 -5 -5 -5 -5 -5 -6 -6 -7
-17 -16 -16 -17 -17 -18 -19 -19 -20 -21 -22 -23 -24 -24 -25 -25 -26 -25 -25 -24 -23 -22 -19 -18 -17 -15 -12 -12 -10 -11 -9 -8 -7 -8 -10 -10 -7 -6 -5 -5 -5 -5 -7 -7
-17 -16 -17 -17 -18 -18 -18 -19 -21 -21 -23 -23 -24 -25 -25 -25 -25 -25 -25 -25 -24 -24 -21 -20 -18 -16 -14 -13 -10 -11 -10 -9 -9 -9 -10 -10 -9 -10 -6 -7 -5 -5 -7 -8
-17 -17 -17 -17 -18 -18 -18 -19 -20 -21 -22 -23 -24 -25 -25 -25 -25 -26 -25 -25 -25 -24 -23 -21 -20 -18 -16 -13 -12 -11 -10 -10 -10 -9 -9 -9 -8 -7 -7 -10 -7 -6 -6 -7
-17 -17 -17 -17 -18 -18 -18 -19 -19 -21 -22 -23 -24 -24 -25 -25 -25 -25 -25 -25 -25 -24 -24 -22 -20 -19 -17 -15 -13 -12 -11 -11 -10 -10 -10 -10 -7 -8 -7 -7 -9 -8 -8 -7
-17 -17 -17 -17 -18 -18 -18 -18 -19 -20 -21 -21 -23 -24 -24 -25 -25 -25 -25 -25 -25 -25 -24 -23 -21 -20 -18 -17 -15 -14 -13 -12 -11 -10 -10 -10 -9 -10 -9 -8 -7 -7 -6 -6
-17 -17 -17 -17 -17 -18 -18 -18 -19 -19 -20 -21 -22 -24 -24 -24 -25 -25 -25 -26 -25 -25 -24 -23 -22 -22 -21 -18 -17 -16 -15 -13 -12 -11 -12 -13 -13 -13 -9 -8 -8 -7 -7 -7
-17 -17 -17 -17 -17 -18 -18 -18 -18 -19 -20 -21 -21 -22 -23 -24 -24 -24 -25 -25 -25 -25 -24 -23 -24 -22 -22 -21 -20 -17 -16 -15 -14 -12 -12 -13 -14 -13 -10 -10 -11 -9 -7 -7
-17 -16 -17 -17 -17 -17 -17 -18 -18 -18 -19 -20 -21 -21 -22 -23 -24 -24 -25 -25 -25 -24 -24 -23 -23 -24 -22 -22 -21 -20 -17 -16 -15 -14 -13 -14 -14 -14 -13 -12 -10 -8 -6 -5
-16 -16 -17 -17 -17 -17 -17 -18 -18 -18 -19 -19 -20 -21 -21 -22 -22 -23 -24 -24 -24 -24 -24 -23 -23 -24 -23 -23 -22 -21 -20 -18 -17 -16 -14 -14 -14 -13 -12 -10 -9 -7 -6 -5
-16 -16 -16 -17 -17 -17 -17 -18 -17 -18 -18 -19 -19 -20 -21 -22 -22 -22 -22 -23 -24 -24 -24 -24 -23 -23 -23 -22 -22 -22 -20 -19 -17 -16 -15 -14 -13 -12 -10 -8 -8 -7 -7 -7
-16 -16 -16 -17 -17 -17 -17 -17 -17 -18 -18 -18 -18 -19 -19 -19 -20 -20 -21 -21 -22 -22 -23 -23 -23 -23 -23 -22 -22 -20 -19 -18 -17 -16 -15 -14 -11 -11 -10 -9 -8 -9 -8 -7
-16 -16 -16 -17 -17 -17 -17 -18 -18 -18 -18 -18 -18 -18 -19 -19 -19 -20 -20 -20 -20 -21 -21 -21 -21 -21 -21 -22 -22 -20 -20 -17 -16 -16 -16 -15 -14 -12 -12 -11 -10 -9 -9 -8
-16 -16 -16 -16 -16 -16 -17 -17 -17 -18 -18 -17 -17 -18 -18 -18 -18 -18 -19 -19 -19 -19 -20 -20 -21 -21 -20 -20 -21 -22 -20 -19 -16 -15 -14 -14 -13 -13 -11 -10 -10 -10 -9 -9
-16 -16 -16 -16 -16 -16 -17 -17 -17 -17 -17 -17 -17 -18 -18 -18 -18 -18 -18 -19 -19 -20 -20 -20 -19 -19 -19 -18 -19 -19 -17 -18 -18 -17 -14 -13 -12 -12 -11 -10 -8 -9 -10 -10
-16 -16 -15 -16 -16 -16 -16 -17 -17 -17 -17 -16 -17 -18 -18 -18 -18 -18 -18 -19 -19 -19 -19 -19 -18 -18 -17 -16 -16 -17 -16 -16 -16 -17 -17 -16 -13 -11 -11 -10 -9 -8 -7 -8
-15 -15 -16 -16 -16 -16 -17 -17 -17 -16 -17 -17 -17 -17 -17 -18 -18 -18 -18 -18 -18 -18 -18 -18 -17 -17 -16 -17 -17 -16 -15 -15 -17 -17 -17 -17 -15 -12 -10 -10 -9 -8 -8 -8
-16 -16 -17 -16 -17 -17 -17 -17 -17 -17 -17 -17 -17 -17 -17 -17 -17 -17 -17 -17 -17 -17 -17 -18 -18 -17 -16 -16 -17 -17 -17 -16 -16 -17 -17 -17 -18 -16 -12 -9 -9 -9 -9 -9
-16 -17 -17 -17 -17 -17 -16 -16 -17 -17 -16 -17 -17 -17 -17 -17 -17 -17 -17 -17 -17 -17 -17 -17 -17 -17 -16 -16 -16 -17 -16 -16 -16 -17 -18 -18 -18 -18 -15 -13 -12 -10 -10 -10
-16 -17 -17 -17 -17 -16 -16 -16 -16 -16 -16 -17 -17 -18 -18 -17 -17 -16 -16 -17 -17 -17 -17 -17 -17 -18 -17 -16 -16 -16 -16 -16 -16 -16 -18 -18 -17 -17 -17 -15 -13 -12 -13 -11
-17 -18 -17 -17 -16 -16 -16 -16 -16 -16 -16 -17 -17 -17 -18 -18 -17 -16 -16 -17 -17 -17 -17 -17 -17 -17 -17 -17 -17 -17 -16 -16 -15 -16 -15 -17 -16 -16 -15 -13 -13 -12 -12 -12
-17 -17 -16 -16 -16 -17 -17 -17 -17 -17 -17 -16 -17 -17 -18 -18 -18 -17 -16 -16 -16 -16 -16 -17 -17 -17 -17 -17 -17 -17 -17 -16 -16 -16 -16 -15 -15 -15 -14 -14 -13 -12 -12 -12
-17 -17 -17 -17 -17 -17 -17 -17 -17 -17 -17 -17 -17 -17 -17 -18 -18 -18 -17 -16 -16 -16 -16 -17 -17 -17 -17 -17 -17 -17 -17 -17 -17 -16 -16 -16 -15 -15 -14 -14 -14 -13 -13 -13
-17 -17 -17 -17 -17 -17 -17 -17 -17 -17 -17 -17 -17 -17 -17 -17 -17 -17 -17 -18 -18 -18 -17 -17 -17 -17 -17 -17 -17 -17 -17 -16 -17 -17 -16 -16 -15 -15 -15 -15 -14 -14 -14 -13
-18 -18 -18 -18 -18 -18 -18 -18 -18 -18 -18 -18 -18 -18 -18 -18 -18 -18 -18 -18 -18 -18 -18 -18 -18 -18 -17 -17 -17 -17 -17 -17 -17 -17 -17 -16 -16 -16 -15 -14 -14 -14 -14 -14

GFSNW_500_temp_030.txt.gz
Temp
-15 -16 -16 -16 -16 -16 -17 -16 -17 -17 -18 -19 -21 -24 -22 -24 -24 -24 -23 -23 -21 -17 -15 -15 -14 -13 -12 -12 -12 -11 -9 -9 -10 -9 -9 -8 -6 -6 -5 -5 -5 -6 -6 -5
-16 -16 -16 -16 -16 -16 -16 -17 -17 -18 -19 -20 -21 -22 -23 -24 -24 -24 -24 -23 -23 -19 -16 -14 -14 -13 -13 -12 -13 -13 -13 -10 -9 -9 -9 -9 -7 -6 -6 -7 -6 -5 -6 -6
-16 -16 -16 -16 -16 -17 -17 -17 -18 -19 -20 -21 -21 -23 -24 -24 -24 -25 -25 -25 -23 -20 -20 -18 -15 -14 -14 -13 -13 -11 -11 -9 -9 -9 -7 -8 -9 -9 -8 -8 -5 -6 -6 -6
-17 -16 -17 -16 -17 -17 -17 -18 -18 -19 -20 -21 -22 -23 -24 -24 -25 -25 -25 -25 -24 -23 -22 -18 -17 -15 -14 -14 -13 -12 -12 -10 -10 -10 -10 -9 -8 -7 -7 -5 -6 -6 -7 -7
-17 -17 -17 -16 -16 -17 -18 -18 -18 -19 -19 -21 -22 -23 -24 -25 -25 -25 -25 -25 -24 -23 -23 -21 -19 -16 -15 -14 -13 -13 -11 -10 -11 -11 -9 -10 -10 -9 -7 -9 -8 -8 -7 -7
-17 -17 -16 -16 -16 -17 -18 -18 -18 -19 -19 -20 -21 -23 -24 -24 -25 -25 -25 -25 -25 -24 -25 -23 -20 -19 -17 -15 -14 -13 -12 -12 -11 -9 -9 -9 -10 -10 -9 -9 -9 -9 -7 -7
-16 -17 -16 -16 -17 -17 -17 -18 -18 -19 -19 -20 -21 -22 -24 -24 -24 -25 -25 -25 -25 -24 -24 -23 -20 -19 -18 -16 -14 -14 -13 -10 -10 -10 -10 -10 -10 -10 -10 -10 -9 -9 -8 -8
-17 -16 -16 -16 -17 -17 -18 -17 -18 -18 -19 -19 -21 -22 -23 -24 -24 -25 -25 -25 -25 -25 -24 -23 -21 -19 -20 -18 -16 -14 -14 -12 -11 -11 -10 -10 -11 -10 -10 -10 -10 -9 -9 -8
-17 -16 -16 -16 -17 -17 -18 -17 -18 -18 -19 -19 -20 -21 -22 -23 -24 -24 -24 -25 -25 -25 -23 -23 -22 -20 -21 -20 -18 -15 -14 -14 -12 -12 -11 -11 -11 -11 -10 -11 -10 -10 -10 -10
-17 -17 -17 -17 -17 -17 -17 -17 -18 -18 -18 -19 -20 -21 -22 -22 -23 -24 -24 -25 -25 -24 -24 -23 -22 -20 -20 -20 -19 -17 -15 -14 -14 -13 -11 -11 -11 -11 -11 -11 -11 -10 -10 -10
-16 -16 -16 -16 -17 -17 -17 -17 -17 -18 -18 -18 -19 -20 -20 -21 -22 -23 -24 -24 -24 -24 -23 -23 -22 -21 -20 -20 -19 -18 -17 -16 -15 -15 -13 -12 -12 -11 -12 -11 -10 -10 -10 -8
-17 -16 -16 -17 -17 -17 -17 -17 -17 -18 -18 -18 -19 -19 -19 -20 -20 -21 -22 -23 -23 -23 -23 -23 -22 -21 -22 -21 -19 -19 -18 -18 -16 -16 -14 -13 -13 -12 -12 -12 -12 -11 -10 -8
-16 -16 -16 -16 -16 -17 -17 -17 -17 -17 -17 -18 -18 -19 -19 -19 -20 -20 -21 -22 -23 -22 -23 -23 -22 -22 -22 -21 -20 -20 -19 -19 -18 -16 -15 -14 -14 -14 -13 -12 -11 -11 -9 -8
-16 -16 -16 -16 -16 -16 -17 -17 -17 -17 -17 -17 -18 -18 -19 -19 -19 -20 -20 -21 -21 -21 -22 -22 -22 -22 -22 -21 -20 -19 -20 -19 -18 -17 -16 -15 -13 -13 -11 -12 -11 -9 -9 -7
-16 -16 -16 -16 -16 -16 -16 -17 -17 -17 -17 -17 -18 -18 -18 -19 -19 -19 -20 -20 -21 -21 -21 -21 -21 -21 -22 -21 -21 -20 -19 -18 -17 -17 -17 -16 -14 -13 -12 -10 -11 -10 -9 -7
-16 -16 -16 -16 -16 -16 -16 -17 -16 -17 -17 -17 -17 -18 -18 -19 -19 -18 -19 -19 -20 -20 -20 -20 -21 -20 -20 -21 -21 -20 -19 -18 -17 -16 -15 -14 -13 -13 -13 -11 -12 -11 -11 -10
-16 -15 -15 -16 -16 -16 -16 -16 -16 -16 -17 -17 -17 -18 -19 -18 -18 -19 -19 -19 -20 -20 -20 -20 -19 -19 -19 -18 -19 -17 -17 -16 -15 -12 -13 -13 -13 -13 -13 -12 -11 -12 -9 -9
-16 -16 -15 -16 -16 -16 -16 -16 -17 -17 -17 -16 -17 -18 -18 -18 -18 -18 -19 -19 -19 -19 -19 -19 -18 -17 -17 -17 -18 -18 -17 -16 -16 -16 -15 -12 -12 -12 -13 -12 -11 -11 -11 -11
-15 -15 -15 -16 -16 -16 -16 -16 -17 -17 -17 -17 -17 -17 -17 -17 -17 -18 -18 -18 -18 -18 -18 -18 -18 -18 -18 -17 -17 -17 -16 -15 -15 -16 -18 -18 -15 -13 -11 -12 -11 -11 -10 -11
-16 -15 -16 -16 -16 -16 -17 -17 -17 -16 -16 -16 -17 -18 -17 -17 -17 -17 -17 -17 -18 -18 -18 -18 -18 -18 -18 -17 -16 -16 -16 -16 -15 -16 -17 -18 -19 -17 -15 -12 -10 -10 -10 -9
-16 -16 -16 -16 -16 -17 -17 -16 -16 -16 -16 -17 -17 -17 -17 -18 -18 -17 -17 -17 -17 -17 -17 -17 -17 -17 -18 -18 -17 -16 -15 -16 -16 -18 -17 -18 -17 -17 -17 -15 -12 -10 -9 -9
-16 -16 -16 -16 -17 -17 -17 -17 -17 -16 -16 -16 -17 -17 -16 -17 -17 -17 -17 -17 -17 -17 -17 -17 -17 -17 -17 -17 -18 -16 -16 -17 -17 -18 -17 -17 -17 -17 -17 -17 -15 -13 -11 -9
-16 -17 -17 -17 -17 -17 -17 -17 -17 -17 -17 -17 -17 -17 -16 -16 -17 -17 -17 -17 -17 -17 -16 -16 -17 -17 -17 -17 -17 -18 -18 -18 -17 -18 -17 -17 -17 -17 -18 -18 -17 -15 -13 -10
-17 -18 -17 -17 -17 -17 -17 -17 -17 -17 -17 -17 -17 -17 -17 -17 -17 -17 -17 -17 -17 -17 -17 -17 -17 -18 -17 -17 -17 -17 -17 -18 -17 -17 -17 -17 -17 -17 -16 -17 -17 -15 -15 -14
-17 -17 -17 -17 -17 -17 -17 -17 -17 -17 -17 -17 -18 -18 -18 -17 -18 -17 -17 -18 -18 -17 -17 -17 -17 -17 -17 -18 -18 -17 -17 -17 -17 -18 -17 -17 -17 -16 -16 -15 -16 -14 -14 -15
-17 -17 -17 -18 -18 -18 -18 -18 -18 -18 -18 -18 -18 -18 -18 -18 -18 -18 -18 -18 -18 -18 -18 -18 -18 -18 -17 -18 -18 -18 -17 -17 -17 -17 -17 -17 -17 -16 -16 -16 -16 -15 -15 -15
-18 -18 -18 -18 -18 -18 -18 -18 -18 -18 -18 -18 -18 -18 -18 -18 -18 -19 -19 -19 -19 -19 -19 -18 -18 -19 -18 -18 -18 -18 -18 -18 -18 -17 -17 -17 -17 -16 -16 -16 -16 -16 -15 -15

GFSNW_500_temp_033.txt.gz
Temp
-15 -15 -15 -15 -16 -16 -16 -16 -16 -17 -17 -18 -19 -20 -21 -21 -22 -23 -24 -24 -24 -23 -21 -17 -15 -15 -14 -14 -13 -12 -12 -11 -10 -8 -8 -9 -9 -8 -6 -6 -6 -6 -5 -5
-15 -15 -16 -16 -16 -16 -16 -16 -17 -18 -18 -18 -19 -20 -21 -22 -23 -23 -24 -24 -25 -24 -22 -18 -15 -14 -14 -14 -13 -12 -13 -11 -10 -9 -10 -11 -10 -8 -8 -7 -7 -6 -6 -6
-15 -15 -16 -16 -16 -16 -16 -16 -17 -17 -18 -18 -19 -20 -21 -22 -24 -24 -24 -24 -24 -24 -22 -19 -17 -15 -14 -14 -13 -13 -11 -11 -10 -9 -8 -9 -10 -10 -9 -8 -7 -6 -5 -7
-16 -16 -16 -16 -16 -16 -17 -17 -18 -18 -18 -19 -20 -20 -21 -23 -23 -24 -24 -24 -24 -24 -24 -22 -19 -16 -15 -14 -13 -13 -12 -10 -10 -9 -9 -10 -10 -10 -9 -8 -7 -6 -6 -7
-16 -16 -16 -16 -16 -17 -17 -17 -17 -18 -18 -19 -20 -20 -21 -23 -23 -24 -24 -25 -25 -25 -25 -23 -21 -16 -16 -14 -13 -13 -12 -11 -10 -10 -9 -10 -10 -10 -9 -8 -7 -6 -6 -7
-16 -17 -16 -16 -16 -16 -17 -17 -18 -18 -18 -19 -19 -20 -22 -23 -23 -24 -24 -24 -24 -24 -24 -24 -22 -17 -18 -15 -14 -13 -13 -12 -10 -10 -10 -10 -10 -9 -10 -9 -8 -7 -6 -7
-17 -17 -16 -16 -16 -16 -17 -17 -17 -18 -18 -19 -19 -20 -21 -22 -23 -23 -24 -24 -24 -25 -24 -24 -21 -17 -18 -15 -14 -13 -13 -13 -10 -10 -10 -9 -8 -11 -11 -10 -9 -8 -7 -8
-17 -16 -16 -16 -16 -16 -17 -17 -17 -18 -18 -19 -19 -20 -20 -21 -22 -23 -24 -24 -24 -24 -24 -24 -20 -17 -18 -17 -15 -14 -13 -13 -11 -11 -11 -8 -10 -10 -10 -10 -10 -9 -8 -9
-17 -16 -16 -16 -16 -17 -17 -17 -17 -18 -18 -18 -19 -20 -20 -20 -21 -23 -23 -24 -24 -24 -24 -24 -21 -19 -18 -18 -15 -14 -14 -13 -12 -11 -11 -10 -10 -10 -10 -11 -10 -9 -9 -10
-17 -16 -16 -16 -16 -17 -17 -17 -17 -18 -18 -18 -19 -19 -20 -20 -21 -22 -23 -23 -24 -23 -24 -23 -21 -20 -20 -19 -18 -15 -14 -13 -13 -13 -12 -10 -10 -10 -10 -10 -10 -10 -9 -10
-17 -16 -16 -16 -16 -17 -17 -17 -18 -18 -18 -18 -18 -19 -20 -20 -20 -21 -22 -23 -23 -23 -23 -22 -21 -21 -20 -19 -19 -16 -15 -14 -14 -12 -12 -11 -10 -10 -10 -11 -11 -11 -10 -11
-16 -16 -16 -16 -16 -16 -16 -17 -17 -18 -17 -18 -18 -19 -19 -20 -20 -21 -21 -22 -22 -23 -22 -22 -21 -21 -20 -20 -19 -18 -17 -15 -14 -12 -13 -11 -11 -10 -10 -11 -10 -11 -10 -10
-16 -16 -16 -16 -16 -16 -16 -16 -17 -17 -18 -18 -18 -18 -19 -19 -20 -20 -21 -21 -21 -22 -22 -22 -22 -21 -20 -20 -19 -19 -19 -16 -14 -13 -14 -12 -12 -12 -10 -10 -11 -11 -11 -10
-15 -16 -15 -15 -16 -15 -15 -16 -16 -17 -17 -17 -17 -18 -19 -19 -20 -20 -20 -21 -21 -21 -21 -21 -21 -21 -21 -21 -20 -19 -18 -18 -16 -15 -14 -12 -12 -12 -11 -10 -11 -11 -10 -9
-16 -16 -15 -16 -15 -15 -15 -16 -16 -17 -17 -16 -16 -17 -18 -19 -19 -20 -20 -20 -20 -20 -20 -20 -20 -20 -20 -20 -19 -20 -19 -18 -16 -15 -14 -12 -12 -12 -12 -11 -10 -10 -9 -8
-16 -15 -15 -16 -16 -16 -16 -16 -17 -17 -17 -16 -16 -17 -18 -18 -19 -19 -19 -20 -20 -20 -20 -20 -20 -20 -19 -18 -18 -19 -17 -16 -16 -14 -14 -13 -13 -12 -12 -12 -11 -9 -9 -8
-16 -16 -15 -15 -16 -16 -16 -16 -17 -17 -17 -17 -17 -18 -18 -18 -18 -19 -19 -19 -19 -19 -19 -19 -18 -18 -18 -18 -18 -17 -17 -17 -16 -14 -15 -13 -14 -13 -13 -11 -11 -10 -10 -9
-17 -16 -16 -16 -16 -16 -16 -16 -17 -17 -17 -16 -17 -18 -18 -18 -18 -18 -18 -18 -18 -18 -18 -18 -18 -18 -18 -19 -18 -17 -17 -17 -16 -16 -15 -15 -14 -13 -14 -14 -13 -12 -11 -12
-16 -16 -15 -16 -16 -16 -16 -17 -17 -17 -17 -16 -17 -17 -17 -17 -17 -17 -17 -17 -17 -18 -18 -18 -18 -19 -19 -19 -17 -16 -16 -16 -15 -15 -15 -14 -13 -12 -12 -13 -14 -13 -13 -13
-16 -16 -16 -16 -17 -17 -17 -17 -17 -17 -17 -17 -17 -17 -17 -17 -17 -18 -18 -17 -17 -17 -17 -17 -18 -18 -19 -18 -17 -16 -15 -15 -15 -15 -15 -15 -15 -14 -12 -12 -12 -12 -13 -13
-16 -17 -17 -16 -16 -17 -17 -17 -17 -17 -17 -17 -17 -17 -17 -17 -17 -17 -18 -17 -17 -17 -17 -17 -17 -17 -18 -17 -17 -17 -17 -16 -17 -18 -17 -17 -17 -16 -16 -15 -12 -11 -11 -11
-17 -16 -16 -17 -17 -17 -17 -17 -17 -17 -17 -17 -17 -17 -17 -18 -18 -17 -18 -17 -17 -17 -18 -17 -17 -17 -18 -18 -17 -17 -17 -17 -17 -17 -17 -17 -17 -17 -17 -17 -17 -15 -13 -11
-17 -17 -17 -17 -17 -17 -17 -17 -18 -18 -17 -17 -17 -17 -18 -18 -18 -18 -18 -18 -18 -18 -17 -17 -18 -17 -18 -17 -18 -18 -18 -17 -17 -17 -18 -17 -17 -17 -18 -18 -18 -17 -16 -14
-17 -17 -18 -17 -17 -17 -18 -18 -18 -18 -18 -18 -18 -18 -18 -18 -18 -18 -18 -18 -18 -19 -18 -18 -18 -18 -18 -18 -18 -18 -17 -18 -18 -18 -18 -18 -18 -17 -18 -17 -18 -18 -17 -15
-17 -17 -17 -17 -18 -18 -18 -18 -18 -18 -18 -18 -18 -18 -18 -18 -19 -18 -18 -19 -19 -18 -19 -19 -18 -18 -19 -18 -18 -18 -18 -18 -17 -17 -17 -18 -18 -18 -18 -17 -17 -17 -18 -18
-18 -17 -18 -18 -18 -18 -18 -18 -18 -18 -18 -18 -18 -18 -18 -18 -18 -19 -19 -19 -19 -19 -19 -19 -19 -19 -19 -19 -19 -18 -18 -18 -18 -17 -17 -17 -18 -18 -18 -17 -17 -17 -16 -16
-18 -18 -18 -18 -18 -18 -18 -18 -18 -18 -18 -18 -18 -18 -18 -18 -19 -19 -19 -19 -19 -19 -20 -19 -20 -20 -20 -19 -19 -20 -19 -19 -18 -18 -18 -18 -17 -17 -18 -17 -17 -17 -16 -16

GFSNW_500_temp_036.txt.gz
Temp
-14 -14 -15 -15 -15 -16 -16 -16 -16 -16 -16 -17 -18 -18 -19 -19 -20 -21 -22 -23 -24 -24 -24 -24 -20 -16 -16 -16 -15 -15 -11 -8 -9 -10 -7 -9 -9 -8 -9 -8 -6 -6 -5 -5
-14 -15 -15 -15 -16 -16 -16 -16 -16 -17 -17 -17 -18 -18 -19 -20 -20 -21 -22 -23 -24 -24 -24 -24 -23 -18 -16 -15 -16 -15 -14 -10 -9 -9 -10 -11 -10 -9 -7 -7 -8 -6 -6 -6
-15 -15 -15 -16 -16 -16 -16 -16 -16 -17 -17 -17 -17 -18 -19 -20 -22 -22 -23 -23 -24 -24 -24 -24 -24 -19 -16 -16 -15 -15 -14 -10 -9 -9 -10 -10 -9 -9 -9 -8 -7 -6 -5 -7
-15 -15 -16 -16 -17 -16 -16 -16 -17 -17 -17 -18 -18 -18 -19 -20 -21 -23 -23 -23 -24 -24 -24 -24 -24 -20 -17 -16 -15 -14 -13 -11 -10 -9 -9 -10 -9 -10 -10 -9 -7 -6 -6 -6
-16 -16 -16 -16 -16 -16 -16 -16 -17 -17 -18 -18 -18 -19 -20 -20 -21 -23 -23 -24 -24 -25 -25 -24 -24 -20 -17 -17 -17 -14 -14 -13 -10 -9 -10 -10 -10 -9 -10 -10 -8 -7 -7 -7
-17 -17 -17 -16 -16 -16 -16 -17 -17 -18 -18 -18 -18 -19 -20 -21 -21 -23 -23 -24 -24 -25 -24 -24 -23 -21 -18 -17 -17 -14 -14 -13 -11 -11 -11 -11 -11 -11 -11 -10 -9 -8 -7 -7
-17 -17 -17 -16 -16 -16 -16 -17 -17 -17 -18 -18 -18 -19 -20 -21 -21 -22 -23 -24 -24 -24 -24 -24 -24 -19 -17 -17 -17 -14 -14 -13 -12 -12 -12 -11 -11 -11 -11 -10 -10 -10 -8 -8
-17 -17 -16 -16 -16 -16 -16 -17 -17 -17 -17 -18 -18 -19 -20 -21 -21 -22 -24 -24 -24 -24 -24 -23 -22 -19 -17 -17 -18 -15 -14 -13 -13 -13 -12 -11 -11 -11 -10 -10 -10 -9 -9 -9
-16 -16 -16 -16 -16 -16 -16 -17 -17 -17 -18 -18 -19 -19 -20 -20 -21 -22 -22 -23 -24 -23 -24 -24 -22 -19 -18 -17 -17 -15 -14 -13 -13 -13 -12 -12 -11 -11 -11 -10 -10 -10 -9 -9
-16 -16 -16 -16 -16 -16 -16 -16 -17 -17 -18 -18 -18 -19 -19 -20 -21 -22 -22 -23 -23 -23 -23 -22 -21 -21 -19 -18 -18 -15 -13 -13 -13 -12 -12 -12 -10 -10 -10 -11 -10 -10 -10 -9
-16 -16 -16 -15 -16 -16 -16 -16 -16 -16 -17 -18 -18 -19 -19 -20 -21 -21 -22 -23 -23 -23 -23 -21 -20 -20 -19 -19 -17 -15 -13 -13 -13 -12 -12 -11 -10 -10 -10 -10 -10 -10 -10 -9
-16 -16 -16 -15 -15 -16 -15 -15 -15 -15 -16 -17 -18 -18 -19 -20 -20 -21 -22 -23 -23 -22 -22 -21 -20 -20 -18 -19 -18 -17 -15 -13 -13 -12 -12 -11 -10 -10 -10 -10 -9 -10 -10 -9
-16 -16 -15 -15 -15 -15 -15 -15 -16 -16 -16 -16 -16 -18 -18 -19 -20 -20 -21 -22 -22 -22 -22 -21 -21 -20 -19 -19 -19 -18 -17 -14 -13 -12 -11 -12 -10 -9 -10 -11 -9 -10 -10 -8
-16 -16 -16 -16 -16 -15 -15 -16 -16 -17 -16 -16 -16 -16 -17 -17 -18 -19 -20 -20 -21 -22 -22 -21 -21 -20 -20 -19 -19 -18 -18 -16 -13 -13 -12 -12 -11 -11 -10 -10 -10 -10 -9 -7
-17 -16 -16 -16 -16 -15 -16 -16 -17 -17 -17 -17 -16 -16 -17 -17 -17 -18 -18 -19 -20 -21 -21 -21 -20 -19 -18 -18 -18 -18 -17 -16 -14 -13 -13 -12 -12 -11 -11 -10 -10 -11 -9 -7
-17 -16 -16 -16 -16 -16 -16 -17 -17 -18 -18 -17 -17 -17 -17 -18 -18 -18 -18 -18 -18 -18 -19 -18 -15 -16 -16 -15 -15 -16 -16 -15 -15 -14 -13 -12 -12 -12 -12 -11 -11 -11 -10 -7
-17 -17 -16 -16 -17 -17 -17 -17 -17 -18 -18 -18 -17 -18 -18 -18 -18 -18 -18 -18 -18 -18 -18 -17 -17 -17 -16 -15 -14 -13 -14 -14 -14 -15 -15 -13 -12 -12 -12 -12 -11 -11 -11 -9
-17 -17 -17 -16 -16 -17 -17 -17 -17 -18 -17 -17 -17 -17 -17 -18 -18 -18 -18 -18 -18 -18 -18 -18 -17 -17 -16 -16 -16 -16 -15 -13 -13 -13 -14 -13 -12 -12 -13 -12 -11 -12 -11 -11
-17 -17 -17 -17 -17 -17 -17 -17 -17 -17 -18 -17 -17 -18 -18 -18 -18 -18 -18 -18 -18 -17 -17 -16 -15 -15 -16 -16 -17 -17 -16 -15 -13 -12 -12 -13 -13 -11 -12 -13 -12 -13 -13 -12
-17 -17 -17 -17 -17 -17 -17 -17 -18 -17 -18 -18 -18 -18 -18 -18 -18 -18 -18 -19 -18 -18 -17 -17 -16 -16 -16 -16 -16 -16 -15 -15 -15 -15 -14 -14 -12 -12 -12 -13 -13 -12 -12 -12
-17 -17 -17 -17 -17 -17 -17 -17 -17 -17 -17 -18 -18 -18 -18 -18 -18 -18 -19 -19 -18 -18 -18 -18 -18 -17 -17 -17 -17 -16 -16 -16 -16 -18 -17 -16 -16 -15 -14 -12 -13 -13 -13 -13
-17 -17 -17 -17 -17 -18 -18 -18 -18 -18 -18 -18 -18 -18 -18 -18 -18 -18 -18 -19 -18 -18 -19 -18 -18 -18 -18 -18 -18 -17 -17 -17 -17 -17 -16 -16 -16 -16 -16 -16 -14 -12 -12 -12
-17 -17 -17 -18 -18 -18 -18 -18 -18 -18 -18 -18 -18 -18 -18 -18 -19 -19 -19 -19 -19 -19 -19 -19 -19 -18 -18 -19 -19 -18 -18 -18 -18 -18 -17 -17 -16 -17 -17 -17 -17 -16 -14 -12
-18 -18 -17 -17 -17 -17 -18 -18 -18 -18 -18 -18 -18 -18 -18 -18 -18 -18 -19 -19 -19 -19 -19 -19 -19 -19 -19 -18 -18 -18 -18 -18 -18 -18 -18 -17 -16 -17 -16 -17 -17 -17 -17 -16
-17 -18 -17 -18 -18 -18 -18 -18 -18 -18 -18 -18 -18 -18 -18 -18 -18 -19 -19 -19 -19 -19 -19 -19 -19 -20 -20 -19 -19 -19 -19 -18 -18 -18 -18 -18 -18 -17 -17 -17 -17 -17 -17 -18
-17 -18 -18 -18 -18 -18 -18 -18 -18 -19 -19 -18 -19 -19 -19 -19 -19 -19 -19 -19 -19 -19 -19 -19 -19 -20 -20 -20 -20 -20 -19 -19 -19 -18 -18 -18 -18 -18 -18 -17 -17 -17 -18 -18
-17 -17 -18 -18 -18 -18 -18 -18 -19 -19 -19 -19 -19 -19 -19 -19 -19 -19 -19 -19 -19 -19 -20 -20 -20 -20 -20 -20 -20 -20 -20 -20 -19 -19 -19 -19 -19 -18 -19 -18 -18 -18 -18 -18

GFSNW_500_temp_042.txt.gz
Temp
-14 -15 -15 -15 -16 -17 -16 -16 -16 -15 -15 -15 -16 -16 -16 -16 -16 -17 -17 -18 -18 -18 -18 -18 -19 -18 -19 -19 -19 -18 -17 -15 -13 -13 -13 -12 -12 -10 -9 -9 -6 -6 -6 -5
-15 -15 -16 -16 -16 -16 -16 -16 -16 -15 -15 -16 -16 -17 -17 -17 -17 -18 -18 -19 -19 -19 -20 -20 -20 -20 -20 -21 -22 -23 -21 -18 -15 -13 -14 -14 -13 -11 -10 -9 -9 -7 -7 -4
-16 -16 -16 -15 -15 -15 -15 -16 -16 -15 -16 -16 -17 -18 -18 -18 -18 -19 -19 -20 -20 -21 -21 -21 -21 -22 -23 -23 -24 -24 -22 -20 -16 -14 -14 -14 -13 -12 -11 -9 -9 -7 -6 -6
-16 -15 -15 -15 -15 -15 -15 -15 -15 -16 -16 -16 -17 -17 -18 -18 -19 -20 -20 -21 -21 -21 -22 -22 -23 -23 -24 -24 -24 -24 -23 -22 -20 -16 -15 -14 -13 -12 -11 -9 -8 -7 -7 -5
-15 -15 -15 -16 -16 -15 -15 -15 -16 -16 -16 -16 -17 -16 -17 -18 -19 -20 -21 -22 -22 -23 -23 -23 -23 -24 -25 -25 -25 -25 -24 -21 -19 -16 -15 -14 -13 -12 -11 -9 -8 -8 -7 -6
-15 -15 -15 -15 -15 -15 -15 -15 -16 -16 -16 -17 -17 -16 -17 -19 -20 -21 -22 -22 -23 -23 -23 -24 -24 -24 -25 -25 -25 -25 -23 -20 -19 -16 -16 -15 -14 -12 -12 -10 -9 -8 -7 -7
-15 -15 -15 -15 -15 -15 -15 -15 -15 -15 -15 -16 -16 -17 -18 -19 -21 -21 -22 -23 -23 -23 -24 -24 -24 -24 -24 -25 -25 -24 -22 -20 -19 -17 -16 -15 -14 -12 -12 -11 -10 -9 -7 -8
-16 -15 -16 -15 -15 -15 -15 -15 -15 -15 -16 -16 -17 -17 -18 -20 -21 -22 -23 -23 -23 -24 -24 -24 -24 -25 -24 -24 -24 -21 -20 -19 -17 -17 -15 -15 -14 -14 -13 -12 -11 -9 -8 -8
-16 -15 -16 -16 -16 -15 -15 -15 -15 -16 -16 -16 -17 -18 -19 -20 -22 -22 -23 -22 -23 -23 -23 -23 -23 -23 -23 -21 -20 -19 -20 -18 -16 -16 -15 -14 -13 -13 -12 -12 -11 -10 -8 -8
-16 -16 -16 -16 -16 -16 -16 -16 -16 -16 -16 -16 -17 -18 -18 -20 -22 -23 -22 -22 -22 -22 -22 -22 -22 -22 -21 -20 -19 -19 -18 -17 -15 -15 -15 -14 -13 -13 -12 -12 -11 -10 -8 -8
-16 -16 -17 -17 -17 -16 -16 -16 -16 -16 -17 -17 -17 -17 -18 -20 -22 -22 -22 -22 -22 -21 -21 -20 -20 -20 -20 -19 -19 -18 -17 -16 -16 -15 -15 -15 -14 -13 -13 -12 -11 -10 -8 -8
-16 -17 -17 -17 -17 -16 -16 -16 -16 -17 -17 -17 -17 -17 -18 -19 -21 -22 -21 -21 -21 -20 -20 -20 -20 -20 -19 -19 -19 -19 -18 -16 -15 -15 -14 -14 -14 -13 -12 -12 -11 -10 -9 -8
-17 -17 -17 -17 -17 -16 -16 -16 -16 -17 -17 -17 -18 -18 -18 -19 -19 -20 -19 -20 -20 -20 -19 -19 -19 -19 -19 -18 -18 -18 -16 -15 -15 -15 -14 -14 -14 -13 -12 -12 -11 -10 -9 -8
-17 -17 -17 -17 -17 -17 -17 -16 -17 -17 -17 -18 -18 -18 -18 -19 -20 -20 -19 -18 -18 -19 -18 -18 -18 -18 -18 -18 -17 -17 -16 -16 -15 -15 -14 -13 -14 -13 -13 -12 -11 -10 -9 -9
-17 -17 -18 -17 -17 -17 -17 -17 -17 -18 -18 -18 -18 -18 -18 -18 -19 -20 -20 -19 -19 -19 -19 -18 -18 -17 -17 -17 -17 -17 -15 -15 -14 -13 -14 -14 -13 -13 -13 -12 -12 -10 -10 -9
-17 -17 -17 -18 -17 -18 -18 -18 -18 -18 -18 -19 -18 -18 -18 -18 -18 -19 -20 -20 -20 -19 -19 -18 -18 -17 -16 -15 -15 -16 -16 -15 -15 -14 -14 -14 -13 -13 -13 -12 -12 -11 -10 -10
-17 -17 -17 -18 -18 -18 -18 -18 -18 -18 -18 -18 -18 -19 -19 -18 -18 -19 -19 -20 -20 -19 -19 -19 -19 -17 -17 -16 -15 -14 -15 -16 -15 -14 -14 -13 -13 -12 -13 -13 -12 -11 -10 -10
-18 -18 -17 -17 -18 -18 -18 -18 -18 -18 -18 -18 -19 -19 -19 -19 -19 -19 -19 -19 -20 -19 -19 -19 -18 -19 -18 -17 -17 -16 -14 -14 -15 -15 -14 -14 -13 -13 -13 -13 -12 -12 -11 -11
-18 -18 -18 -18 -17 -18 -18 -18 -18 -18 -18 -18 -19 -19 -19 -19 -19 -19 -19 -19 -19 -19 -19 -19 -19 -19 -18 -18 -18 -18 -17 -15 -14 -14 -15 -16 -14 -14 -13 -13 -13 -12 -11 -11
-17 -17 -18 -18 -18 -18 -17 -18 -18 -18 -18 -18 -18 -18 -18 -18 -19 -19 -18 -19 -19 -19 -19 -19 -19 -18 -18 -19 -18 -18 -18 -17 -17 -16 -14 -14 -14 -14 -13 -13 -13 -13 -12 -13
-18 -18 -18 -18 -18 -18 -18 -18 -18 -18 -18 -18 -18 -18 -18 -19 -19 -19 -19 -19 -19 -19 -19 -18 -19 -19 -18 -18 -18 -18 -18 -18 -17 -17 -16 -15 -15 -15 -14 -14 -13 -13 -13 -13
-18 -18 -18 -18 -18 -18 -18 -18 -18 -18 -18 -18 -18 -18 -18 -19 -19 -19 -19 -19 -19 -19 -19 -19 -18 -19 -19 -19 -18 -18 -18 -18 -18 -18 -18 -17 -16 -14 -14 -13 -13 -13 -12 -12
-18 -18 -18 -18 -18 -18 -18 -18 -18 -19 -19 -19 -19 -19 -19 -19 -19 -19 -19 -19 -19 -19 -19 -19 -19 -19 -19 -19 -19 -19 -18 -18 -18 -17 -17 -17 -17 -17 -16 -16 -16 -14 -13 -13
-17 -18 -18 -18 -18 -18 -18 -18 -19 -19 -19 -19 -19 -19 -19 -19 -19 -19 -19 -19 -19 -19 -19 -19 -20 -20 -19 -19 -19 -19 -19 -19 -19 -18 -18 -17 -17 -17 -17 -17 -16 -17 -16 -15
-17 -17 -18 -18 -18 -18 -19 -19 -19 -19 -19 -19 -19 -19 -19 -19 -19 -19 -19 -20 -20 -20 -20 -20 -20 -20 -20 -20 -20 -20 -20 -20 -20 -19 -19 -18 -18 -17 -17 -17 -18 -16 -16 -16
-17 -18 -18 -17 -18 -18 -19 -19 -19 -19 -19 -19 -19 -19 -19 -19 -20 -20 -20 -20 -20 -20 -20 -20 -21 -21 -21 -21 -21 -21 -20 -20 -20 -20 -20 -20 -19 -18 -18 -17 -17 -17 -17 -16
-17 -17 -17 -18 -18 -18 -18 -18 -19 -19 -19 -19 -19 -19 -19 -20 -20 -20 -20 -19 -20 -21 -21 -21 -21 -21 -21 -22 -21 -21 -21 -21 -21 -21 -21 -20 -20 -20 -19 -19 -19 -18 -17 -17

GFSNW_500_temp_045.txt.gz
Temp
-15 -15 -15 -15 -15 -15 -15 -15 -15 -15 -15 -15 -15 -15 -15 -16 -16 -16 -17 -17 -17 -17 -17 -18 -18 -18 -18 -18 -17 -17 -17 -16 -15 -15 -15 -15 -15 -12 -12 -12 -9 -8 -8 -7
-16 -15 -15 -15 -15 -15 -15 -15 -15 -15 -15 -15 -16 -15 -16 -16 -16 -16 -17 -17 -18 -18 -18 -19 -19 -19 -20 -19 -19 -18 -18 -17 -16 -15 -15 -15 -15 -14 -13 -11 -10 -9 -8 -6
-15 -15 -15 -15 -15 -15 -14 -14 -14 -15 -15 -15 -15 -16 -16 -16 -16 -17 -18 -18 -19 -20 -20 -20 -20 -20 -21 -21 -20 -20 -20 -19 -18 -17 -16 -16 -16 -15 -14 -13 -12 -9 -8 -8
-15 -15 -15 -15 -15 -14 -14 -14 -14 -14 -14 -14 -15 -15 -15 -16 -17 -17 -19 -21 -21 -21 -21 -21 -21 -22 -22 -22 -22 -21 -21 -21 -20 -18 -17 -17 -16 -15 -14 -13 -11 -10 -9 -8
-15 -16 -15 -15 -15 -15 -14 -14 -14 -14 -14 -14 -15 -15 -16 -16 -17 -20 -21 -22 -22 -22 -22 -22 -22 -23 -23 -22 -23 -23 -23 -23 -22 -21 -20 -18 -16 -14 -14 -12 -11 -10 -9 -8
-16 -16 -15 -15 -15 -15 -15 -15 -15 -15 -15 -15 -16 -16 -16 -17 -19 -22 -22 -22 -22 -23 -23 -23 -23 -23 -23 -23 -23 -23 -24 -25 -24 -24 -23 -21 -16 -14 -13 -12 -11 -10 -9 -8
-16 -16 -16 -16 -16 -15 -15 -15 -15 -16 -16 -16 -16 -16 -17 -20 -22 -22 -22 -22 -22 -23 -23 -23 -23 -23 -23 -24 -24 -24 -24 -25 -24 -23 -21 -21 -16 -15 -14 -12 -10 -10 -10 -8
-16 -16 -16 -16 -16 -16 -16 -16 -16 -16 -16 -16 -16 -16 -18 -21 -22 -22 -22 -22 -22 -22 -23 -23 -23 -23 -23 -24 -24 -24 -25 -24 -23 -21 -20 -19 -17 -16 -14 -12 -11 -10 -10 -8
-16 -16 -16 -17 -17 -16 -16 -16 -16 -16 -16 -16 -16 -16 -19 -21 -21 -21 -21 -21 -21 -22 -22 -22 -22 -23 -23 -23 -24 -24 -24 -22 -22 -20 -18 -16 -17 -16 -14 -12 -12 -11 -10 -8
-16 -16 -17 -17 -17 -17 -16 -16 -16 -16 -17 -17 -17 -16 -18 -19 -19 -20 -20 -21 -21 -21 -21 -21 -20 -21 -21 -21 -21 -20 -20 -20 -19 -19 -16 -16 -16 -15 -14 -14 -12 -11 -10 -9
-16 -17 -17 -17 -17 -17 -17 -17 -17 -16 -17 -17 -17 -17 -18 -18 -19 -19 -19 -20 -20 -20 -20 -20 -20 -21 -20 -20 -20 -20 -20 -20 -19 -17 -16 -15 -16 -15 -15 -14 -13 -11 -10 -9
-17 -17 -17 -17 -17 -17 -17 -17 -17 -17 -17 -18 -18 -18 -18 -18 -19 -19 -20 -19 -20 -20 -20 -20 -20 -20 -20 -19 -19 -19 -19 -18 -17 -16 -17 -14 -15 -15 -14 -14 -13 -11 -9 -9
-17 -17 -17 -17 -17 -17 -17 -17 -17 -17 -18 -18 -18 -18 -18 -18 -18 -19 -19 -20 -20 -19 -19 -19 -19 -19 -19 -18 -18 -18 -18 -17 -16 -16 -15 -15 -15 -14 -14 -14 -13 -11 -9 -10
-17 -18 -17 -17 -18 -18 -18 -17 -17 -18 -18 -18 -19 -19 -18 -19 -19 -19 -19 -19 -19 -19 -19 -19 -18 -18 -18 -18 -18 -18 -17 -17 -16 -16 -15 -14 -15 -14 -13 -14 -13 -11 -10 -10
-17 -18 -18 -17 -18 -18 -17 -17 -17 -18 -18 -18 -19 -19 -19 -19 -19 -19 -19 -19 -19 -19 -19 -19 -18 -18 -18 -17 -17 -17 -17 -16 -16 -15 -15 -15 -15 -14 -13 -13 -12 -12 -11 -10
-17 -18 -18 -18 -18 -18 -18 -18 -18 -18 -18 -18 -19 -19 -19 -19 -19 -19 -19 -19 -19 -20 -19 -19 -19 -19 -18 -18 -17 -16 -16 -16 -16 -15 -15 -15 -15 -14 -13 -13 -13 -12 -11 -11
-17 -18 -18 -18 -18 -18 -18 -18 -18 -18 -18 -18 -19 -19 -19 -19 -20 -20 -20 -20 -19 -19 -19 -20 -19 -19 -19 -18 -18 -17 -16 -16 -16 -15 -15 -15 -14 -14 -14 -14 -13 -12 -11 -11
-17 -17 -18 -18 -18 -18 -18 -18 -18 -18 -18 -18 -18 -19 -19 -19 -19 -19 -19 -19 -20 -19 -19 -19 -19 -19 -19 -18 -18 -18 -18 -16 -16 -15 -15 -15 -14 -14 -14 -14 -12 -12 -12 -11
-18 -18 -18 -18 -18 -18 -18 -18 -18 -18 -18 -18 -19 -19 -19 -19 -19 -19 -19 -19 -19 -19 -19 -19 -19 -19 -19 -19 -19 -19 -18 -18 -17 -15 -15 -14 -14 -14 -14 -13 -13 -13 -13 -12
-17 -18 -18 -18 -18 -18 -18 -19 -19 -19 -19 -19 -19 -19 -19 -19 -19 -19 -19 -19 -19 -19 -19 -19 -19 -19 -19 -19 -19 -19 -19 -19 -18 -17 -16 -15 -14 -15 -14 -13 -13 -13 -13 -13
-17 -17 -18 -18 -18 -18 -18 -19 -18 -18 -19 -19 -19 -19 -19 -19 -19 -19 -19 -19 -19 -19 -19 -19 -19 -19 -19 -19 -19 -19 -19 -19 -18 -18 -17 -17 -16 -15 -15 -14 -14 -14 -14 -14
-17 -17 -18 -18 -18 -18 -18 -18 -19 -19 -19 -19 -19 -19 -19 -19 -19 -19 -19 -19 -19 -19 -19 -19 -19 -19 -20 -20 -19 -19 -19 -19 -18 -18 -18 -17 -17 -17 -16 -15 -15 -14 -14 -14
-17 -17 -17 -18 -18 -18 -18 -18 -18 -18 -19 -19 -19 -19 -19 -19 -19 -19 -19 -19 -20 -20 -20 -20 -20 -20 -20 -20 -20 -20 -20 -19 -19 -18 -17 -17 -17 -17 -17 -16 -16 -15 -15 -14
-17 -17 -17 -17 -18 -18 -18 -18 -19 -19 -18 -18 -18 -18 -19 -19 -19 -19 -19 -19 -19 -20 -20 -20 -20 -20 -20 -20 -20 -20 -21 -20 -20 -19 -19 -18 -17 -17 -17 -17 -16 -15 -15 -14
-16 -17 -17 -17 -18 -18 -18 -18 -18 -18 -18 -18 -18 -18 -19 -19 -19 -19 -19 -19 -20 -20 -20 -21 -21 -21 -21 -21 -21 -21 -21 -21 -21 -20 -20 -19 -19 -18 -18 -17 -17 -17 -16 -15
-17 -17 -17 -18 -18 -18 -18 -18 -18 -18 -18 -18 -18 -18 -19 -19 -19 -20 -20 -20 -21 -21 -21 -21 -22 -22 -22 -22 -22 -21 -21 -21 -21 -21 -20 -20 -20 -19 -19 -18 -18 -17 -17 -17
-16 -16 -17 -18 -18 -18 -18 -18 -18 -18 -19 -18 -19 -19 -19 -19 -20 -20 -20 -20 -21 -22 -21 -22 -23 -23 -23 -22 -22 -22 -22 -22 -21 -21 -21 -21 -20 -20 -20 -19 -19 -19 -18 -17

GFSNW_500_temp_048.txt.gz
Temp
-15 -15 -15 -15 -15 -15 -14 -14 -14 -14 -14 -15 -15 -15 -15 -15 -15 -15 -15 -15 -16 -16 -16 -16 -17 -17 -17 -16 -16 -16 -16 -15 -15 -14 -14 -14 -14 -13 -13 -14 -11 -8 -10 -11
-15 -15 -15 -15 -15 -14 -14 -14 -14 -15 -14 -14 -14 -14 -14 -14 -14 -14 -15 -15 -16 -17 -18 -18 -18 -18 -18 -18 -17 -17 -16 -16 -16 -15 -15 -15 -15 -15 -14 -13 -11 -12 -11 -9
-15 -15 -15 -15 -15 -15 -14 -14 -14 -15 -14 -14 -14 -14 -14 -14 -14 -14 -15 -16 -18 -19 -20 -20 -20 -20 -19 -19 -19 -18 -18 -17 -17 -16 -17 -18 -17 -16 -15 -15 -14 -11 -9 -12
-15 -15 -15 -15 -15 -15 -15 -15 -15 -15 -15 -15 -14 -14 -14 -14 -15 -16 -19 -20 -21 -21 -21 -21 -21 -21 -21 -20 -20 -20 -19 -18 -18 -17 -17 -17 -17 -16 -15 -15 -13 -10 -10 -14
-15 -15 -16 -15 -16 -15 -15 -15 -15 -15 -15 -15 -15 -14 -14 -15 -17 -19 -21 -21 -21 -21 -21 -22 -22 -22 -22 -22 -22 -21 -21 -20 -21 -19 -18 -18 -17 -17 -15 -15 -15 -12 -10 -10
-16 -16 -16 -16 -16 -16 -16 -15 -15 -15 -15 -15 -15 -14 -14 -17 -18 -19 -20 -20 -21 -22 -22 -22 -22 -22 -23 -22 -22 -22 -22 -22 -22 -21 -20 -19 -18 -16 -16 -15 -15 -14 -11 -10
-16 -16 -17 -16 -16 -16 -16 -16 -16 -16 -16 -15 -15 -15 -17 -17 -18 -19 -20 -21 -21 -21 -22 -22 -22 -22 -23 -23 -23 -22 -22 -23 -23 -22 -22 -23 -17 -16 -16 -15 -15 -14 -13 -12
-16 -16 -17 -17 -17 -17 -17 -17 -16 -16 -16 -16 -16 -16 -17 -18 -18 -19 -19 -20 -20 -21 -21 -22 -23 -23 -23 -23 -23 -23 -23 -23 -23 -23 -23 -22 -18 -16 -16 -15 -14 -14 -13 -12
-17 -17 -17 -17 -17 -17 -17 -17 -17 -17 -17 -17 -16 -17 -17 -18 -18 -18 -19 -19 -19 -20 -20 -21 -22 -22 -22 -22 -23 -24 -24 -24 -24 -23 -23 -21 -20 -17 -16 -16 -15 -14 -13 -12
-17 -17 -17 -17 -17 -17 -18 -18 -18 -17 -17 -17 -17 -17 -18 -18 -18 -19 -19 -19 -20 -20 -20 -21 -21 -21 -21 -21 -22 -22 -23 -23 -23 -23 -22 -20 -19 -16 -17 -17 -15 -13 -12 -12
-17 -17 -17 -17 -17 -17 -17 -18 -18 -18 -18 -18 -18 -18 -18 -19 -19 -19 -19 -19 -20 -20 -20 -20 -20 -21 -21 -21 -20 -21 -21 -21 -21 -21 -21 -19 -18 -16 -17 -17 -14 -13 -12 -12
-17 -17 -17 -17 -17 -18 -18 -18 -18 -18 -18 -18 -18 -18 -18 -18 -19 -19 -19 -19 -19 -19 -20 -20 -20 -20 -20 -21 -20 -20 -20 -20 -20 -20 -19 -18 -16 -17 -15 -16 -15 -14 -13 -11
-17 -18 -18 -17 -18 -18 -18 -18 -18 -18 -18 -19 -19 -19 -19 -19 -19 -19 -19 -19 -19 -19 -19 -20 -19 -20 -20 -20 -20 -20 -20 -20 -20 -19 -18 -17 -16 -16 -14 -15 -15 -14 -13 -11
-17 -18 -18 -17 -17 -18 -18 -18 -18 -18 -19 -19 -19 -19 -19 -19 -19 -19 -19 -19 -19 -19 -20 -19 -19 -19 -19 -19 -19 -18 -19 -19 -18 -18 -18 -17 -16 -15 -13 -15 -14 -14 -12 -10
-17 -18 -18 -18 -18 -18 -18 -18 -18 -18 -18 -19 -19 -19 -19 -19 -19 -19 -19 -19 -19 -19 -20 -20 -20 -19 -19 -19 -18 -17 -17 -17 -17 -17 -16 -16 -15 -14 -14 -14 -13 -13 -12 -11
-17 -17 -17 -18 -18 -18 -18 -18 -18 -18 -18 -18 -18 -19 -19 -19 -19 -19 -19 -19 -19 -19 -19 -20 -20 -19 -19 -19 -18 -18 -18 -17 -16 -16 -16 -15 -14 -13 -14 -14 -13 -13 -12 -12
-17 -17 -18 -18 -18 -18 -18 -18 -18 -18 -18 -18 -19 -19 -19 -19 -19 -19 -19 -19 -19 -19 -19 -20 -19 -19 -19 -19 -18 -18 -17 -17 -17 -16 -16 -15 -15 -14 -14 -14 -12 -13 -12 -12
-17 -17 -18 -18 -18 -18 -18 -18 -18 -18 -19 -19 -19 -19 -19 -19 -19 -19 -19 -19 -19 -19 -19 -19 -20 -20 -20 -19 -18 -18 -17 -17 -16 -17 -15 -16 -16 -14 -14 -14 -13 -13 -12 -11
-17 -17 -18 -18 -18 -18 -18 -18 -18 -19 -19 -19 -19 -19 -19 -19 -19 -19 -19 -19 -19 -19 -19 -19 -19 -19 -19 -19 -19 -19 -18 -18 -17 -17 -16 -15 -15 -15 -14 -14 -12 -13 -12 -12
-17 -17 -17 -17 -18 -18 -18 -18 -19 -19 -19 -19 -19 -19 -19 -19 -19 -19 -19 -19 -19 -19 -20 -20 -19 -19 -19 -19 -19 -19 -19 -19 -18 -18 -17 -16 -15 -15 -14 -14 -13 -13 -13 -12
-17 -17 -17 -17 -17 -18 -18 -18 -18 -19 -18 -18 -18 -18 -19 -19 -19 -19 -19 -19 -19 -19 -19 -20 -20 -20 -19 -19 -19 -19 -19 -19 -19 -19 -18 -18 -16 -15 -15 -14 -14 -13 -13 -13
-16 -17 -17 -17 -17 -17 -18 -18 -18 -18 -18 -18 -18 -18 -19 -19 -19 -18 -18 -18 -18 -19 -19 -19 -19 -20 -20 -19 -20 -19 -19 -19 -19 -19 -18 -18 -17 -17 -17 -15 -14 -14 -14 -14
-16 -17 -17 -17 -17 -17 -18 -18 -18 -18 -18 -18 -18 -18 -18 -18 -19 -19 -19 -19 -19 -19 -19 -19 -19 -20 -20 -20 -20 -20 -20 -19 -19 -19 -19 -19 -18 -17 -17 -16 -16 -15 -15 -14
-16 -16 -17 -17 -18 -17 -18 -18 -18 -18 -18 -18 -18 -19 -19 -19 -20 -20 -20 -20 -20 -20 -20 -20 -20 -20 -20 -21 -21 -21 -20 -20 -20 -20 -19 -19 -19 -19 -18 -17 -17 -16 -15 -14
-16 -16 -17 -17 -17 -18 -18 -18 -18 -18 -18 -18 -18 -18 -19 -19 -19 -20 -20 -20 -20 -21 -21 -21 -21 -21 -21 -21 -21 -21 -21 -21 -20 -20 -20 -19 -19 -19 -19 -18 -18 -17 -16 -16
-16 -16 -16 -17 -17 -18 -18 -18 -18 -18 -18 -18 -18 -19 -19 -19 -20 -20 -20 -21 -21 -21 -22 -22 -22 -22 -22 -22 -22 -22 -22 -22 -21 -21 -21 -20 -20 -20 -19 -19 -19 -18 -18 -17
-16 -16 -17 -17 -17 -18 -18 -18 -18 -18 -18 -18 -19 -19 -19 -19 -20 -20 -20 -21 -21 -22 -22 -21 -22 -22 -22 -22 -23 -23 -22 -22 -22 -22 -22 -21 -21 -21 -20 -20 -19 -19 -18 -18